GFSFLT1_250_rhum_000.txt.gz
RH
21 24 22 18 15 16 19 18 19 15 16 16 19 18 14 14 14 13 13 14 12 13 12 11 10 12 12 12 12 12 12 12 13
25 21 19 16 18 18 19 19 18 18 19 20 20 17 17 19 18 17 17 17 14 13 15 13 11 11 11 13 12 13 14 17 16
19 20 22 19 18 18 19 20 20 22 23 23 21 20 22 23 25 23 23 19 15 16 15 15 14 14 16 15 14 13 15 18 17
21 25 22 17 18 18 21 22 24 27 28 28 24 25 27 31 31 29 26 20 19 19 17 18 20 17 17 18 17 16 14 15 18
25 20 17 18 19 22 24 26 30 32 33 32 29 31 40 41 38 36 32 27 28 22 21 30 28 22 22 20 19 20 19 18 20
14 15 19 21 24 25 26 30 34 38 36 32 33 37 44 48 50 36 38 40 35 29 31 29 33 35 32 27 22 21 20 20 22
16 20 22 26 26 28 31 35 39 41 36 38 33 42 46 54 48 39 50 52 61 48 34 40 31 42 46 39 25 25 25 24 29
20 23 26 29 32 35 37 38 41 43 42 40 42 48 54 48 41 42 39 42 67 70 60 55 57 55 58 52 44 35 31 32 33
29 31 35 34 37 36 37 42 45 48 44 52 54 56 45 48 48 47 46 52 65 76 72 55 67 67 63 62 65 43 40 46 52
36 36 36 46 47 38 43 43 43 51 59 76 75 65 60 62 59 61 59 63 68 86 76 75 81 83 80 78 75 62 52 49 61
60 63 69 66 60 54 49 53 51 59 70 87 88 80 78 78 74 76 83 76 77 83 80 94 100 95 86 81 97 87 66 53 67
83 94 87 88 88 72 57 60 65 75 90 97 100 89 79 69 85 83 100 85 78 90 92 83 95 100 100 97 100 94 76 64 87
79 76 76 87 91 71 67 71 65 64 60 85 100 95 80 80 62 86 100 100 100 100 100 100 100 92 97 100 100 100 73 69 82
84 81 87 100 100 95 84 83 75 70 70 88 100 99 86 84 89 100 100 100 100 100 100 100 99 94 96 100 100 100 89 100 94
99 95 97 100 98 100 100 100 100 98 91 100 100 81 100 100 100 100 100 100 100 100 100 100 100 100 85 100 100 100 100 99 97
100 100 100 91 100 100 100 100 100 99 92 64 58 89 97 97 100 100 100 100 100 100 100 100 100 100 100 95 100 90 85 100 100
75 69 94 100 100 64 64 68 74 75 72 73 72 90 90 100 100 100 100 100 100 100 98 96 97 100 100 100 100 100 99 78 100
64 66 64 64 70 71 60 56 69 70 69 76 76 83 100 100 100 100 100 100 100 100 100 94 99 86 100 100 100 100 95 97 100
55 55 61 64 57 78 89 87 82 98 100 100 100 100 100 100 100 100 100 100 100 100 100 100 76 94 100 100 100 100 97 78 98
44 41 38 46 52 46 62 90 99 100 100 100 100 100 100 100 100 100 100 100 100 100 92 100 95 89 100 100 100 100 99 89 100

GFSFLT1_250_rhum_003.txt.gz
RH
25 26 28 26 20 19 21 20 20 19 20 21 22 23 18 19 15 15 15 15 15 14 16 13 17 14 14 15 14 14 15 13 13
29 29 22 23 22 21 20 21 21 22 23 24 25 21 23 21 19 18 17 18 18 18 18 16 22 20 19 20 19 18 16 16 18
26 21 20 24 24 19 20 21 22 24 23 25 26 26 25 24 22 21 23 24 25 24 22 22 23 30 31 33 29 28 20 19 19
21 22 22 22 18 19 21 22 25 26 26 30 29 29 27 25 24 31 30 31 31 31 31 38 37 44 44 45 43 39 32 26 27
24 22 17 16 19 20 22 26 27 26 32 33 31 29 28 32 36 37 40 40 44 46 54 52 55 53 50 45 48 52 42 36 31
21 16 16 18 20 24 25 25 28 30 30 30 34 32 37 50 50 50 42 43 50 60 68 56 57 67 68 53 61 65 67 64 54
18 20 23 24 26 26 24 26 28 34 36 36 37 39 41 48 62 62 47 53 52 67 77 69 77 69 80 74 61 46 65 62 65
27 29 29 29 30 25 29 36 40 43 51 54 45 43 49 56 90 76 76 68 67 69 100 100 96 72 93 84 94 75 68 54 80
33 31 32 32 36 41 46 61 66 57 64 70 66 69 62 56 74 79 86 84 86 90 100 100 100 88 95 95 91 89 82 95 84
39 42 49 59 59 59 65 75 81 67 68 70 67 56 65 65 91 99 100 92 98 100 100 100 100 100 92 98 100 95 97 90 100
47 50 55 56 60 49 62 91 83 70 56 62 68 84 70 68 77 100 80 88 100 100 100 100 100 97 95 100 96 96 100 97 96
61 66 78 90 94 91 96 100 100 100 99 99 100 100 100 74 93 59 69 98 100 100 100 100 100 100 100 100 97 100 100 78 82
62 64 68 82 94 96 92 96 89 96 98 98 99 98 87 77 64 71 72 76 87 100 100 100 100 100 100 100 94 99 95 81 92
62 65 72 90 100 100 100 95 100 100 100 79 70 81 71 85 88 95 97 92 99 100 100 100 100 100 100 100 100 99 91 95 100
74 82 90 87 66 61 65 68 87 70 59 82 90 93 100 100 100 100 100 100 100 100 100 100 100 100 100 100 100 100 99 89 92
72 77 79 82 74 66 64 74 65 64 67 69 72 95 100 100 100 100 100 100 100 100 100 100 100 100 100 100 100 100 97 93 100
48 51 57 55 56 62 63 60 63 61 65 70 81 83 80 83 98 100 100 100 100 100 100 100 100 100 100 100 100 100 100 100 100
81 77 80 84 80 69 67 62 60 64 70 74 60 44 49 58 58 61 60 65 84 100 100 100 100 100 100 100 100 100 100 100 100
87 96 81 54 44 52 52 59 65 63 46 42 36 39 41 35 42 50 51 57 68 72 92 100 100 100 100 100 100 100 100 100 100
48 51 49 54 58 56 62 72 57 58 56 54 51 61 68 75 64 71 76 75 71 79 91 100 100 100 100 100 100 100 100 100 100

GFSFLT1_250_rhum_006.txt.gz
RH
31 30 29 26 22 20 18 19 17 18 18 18 20 21 19 22 21 20 21 21 18 18 19 18 21 21 25 24 30 26 26 19 18
31 29 23 22 20 20 19 18 18 18 19 22 21 21 21 23 24 25 27 28 28 29 24 28 25 39 52 38 37 39 37 32 27
29 24 24 22 21 19 19 17 18 19 22 22 25 27 26 27 27 27 32 37 54 37 34 39 32 65 88 67 47 40 51 58 49
24 26 25 22 20 17 16 19 22 24 24 27 31 35 35 33 33 37 41 51 63 59 60 47 48 96 100 82 74 64 59 72 54
29 24 23 22 16 19 22 27 23 24 27 32 38 46 45 39 45 50 54 61 58 54 77 58 60 100 100 100 99 77 72 93 78
26 23 21 19 25 27 29 27 26 30 40 47 41 43 49 54 60 59 65 53 50 69 94 67 78 100 100 100 100 93 81 98 73
20 19 24 31 31 30 31 33 34 37 43 51 42 45 49 60 71 68 63 64 75 100 100 72 87 100 100 100 100 100 99 100 97
23 27 33 33 33 38 42 40 45 57 67 88 86 72 67 81 95 98 94 79 52 96 88 81 96 100 100 100 100 100 100 100 89
31 38 39 40 40 43 50 57 56 53 61 54 57 41 51 72 99 100 100 100 85 82 86 90 80 72 100 100 100 99 100 100 100
40 42 40 39 47 46 54 70 85 86 85 89 93 81 84 100 100 92 90 100 100 96 98 94 78 94 100 99 100 100 100 100 100
43 44 44 45 46 50 61 78 87 100 100 99 87 98 100 100 99 65 77 76 84 87 88 91 100 100 100 100 100 100 100 100 100
43 44 43 50 56 58 68 76 100 100 63 53 62 80 88 62 62 62 79 93 100 100 100 100 100 100 100 100 100 100 100 100 100
45 47 50 54 60 70 81 85 69 65 69 67 64 69 60 60 64 74 82 84 82 87 94 97 88 82 95 98 100 100 100 100 100
54 66 62 65 71 60 54 60 65 68 72 75 72 70 75 68 72 58 64 51 42 42 56 63 64 72 78 86 94 100 100 100 100
58 52 52 58 59 58 80 78 79 86 82 71 71 57 76 80 54 60 52 40 36 45 56 56 67 74 80 88 90 100 100 100 100
42 50 56 50 55 76 97 100 100 98 67 63 69 67 60 59 51 47 47 56 54 57 69 84 86 84 80 79 77 95 100 100 100
58 57 62 66 70 77 63 56 62 76 76 71 67 58 78 56 54 60 67 66 71 81 83 83 77 79 69 72 74 92 100 100 100
64 56 53 52 44 46 44 45 47 60 74 78 58 55 64 66 78 73 85 93 97 88 85 78 87 81 77 58 70 90 100 100 100
56 44 37 42 42 45 48 44 39 41 45 65 58 60 67 63 55 76 95 100 99 96 96 94 98 78 69 55 63 85 100 100 100
56 66 69 67 54 54 46 38 36 51 43 53 54 51 59 62 67 87 99 99 98 97 97 100 98 100 73 51 62 71 100 100 100

GFSFLT1_250_rhum_009.txt.gz
RH
62 38 34 38 28 22 22 23 21 20 18 17 19 23 24 25 23 25 24 23 23 24 21 24 28 29 41 33 72 70 57 56 44
46 40 36 31 24 22 24 23 21 19 18 19 22 22 26 26 26 27 25 25 26 31 33 33 36 55 71 49 77 97 71 88 67
44 33 27 24 22 24 23 22 18 18 20 22 21 25 29 30 27 31 34 40 44 50 54 48 39 66 75 48 63 80 87 72 78
37 25 24 25 25 23 23 17 20 23 25 21 27 33 39 35 32 36 43 49 58 67 64 60 52 88 100 76 94 74 90 79 83
29 28 31 28 24 23 19 23 24 26 26 29 35 39 43 36 32 29 36 54 91 94 100 100 78 67 60 75 71 66 72 87 85
36 34 29 26 19 24 26 25 28 31 34 34 35 38 43 52 49 42 41 68 93 100 98 80 83 78 77 81 78 75 100 100 100
44 28 28 21 23 27 30 33 34 37 44 52 61 64 69 72 73 64 69 95 100 100 82 68 87 91 96 98 95 100 100 100 100
25 29 22 24 29 36 37 38 42 51 64 72 78 75 71 69 62 74 99 100 97 87 81 70 57 66 81 86 100 100 100 100 94
30 24 29 35 38 38 40 44 44 41 46 53 62 82 94 80 85 86 76 73 67 61 57 57 65 60 48 57 82 83 75 78 87
26 33 36 37 40 41 40 40 43 48 59 71 78 96 77 82 83 78 82 72 70 75 77 70 58 66 52 51 67 75 89 94 85
34 38 41 42 40 39 42 50 57 64 69 67 73 92 85 91 83 72 74 78 82 82 70 63 70 58 60 72 70 77 80 76 78
42 42 40 39 39 51 58 49 63 66 60 71 75 74 86 98 99 99 93 73 71 66 60 50 62 70 77 72 89 75 70 75 73
43 41 37 36 44 55 48 48 44 48 57 64 84 94 100 98 94 82 71 66 61 78 62 47 85 74 74 81 78 81 72 58 63
42 40 37 38 50 45 44 45 43 60 59 54 66 55 49 50 45 46 48 59 72 70 64 64 82 75 76 85 88 84 74 72 72
46 49 49 45 41 47 59 58 55 50 37 38 40 36 41 40 44 49 54 64 77 66 72 68 82 88 90 85 83 74 72 85 79
40 39 39 44 49 67 67 54 40 43 42 42 50 50 46 44 45 62 74 81 69 72 72 79 97 93 79 87 76 68 74 85 84
40 42 50 62 75 84 72 72 70 74 73 67 54 43 51 51 66 58 67 64 71 76 65 89 93 77 78 89 82 75 77 74 71
48 58 75 68 67 72 70 59 45 46 54 48 42 38 43 46 53 54 42 52 60 68 81 95 76 77 73 75 82 76 75 73 69
54 63 61 59 61 53 40 42 44 46 45 45 51 49 49 42 51 49 49 55 61 76 94 97 80 74 74 72 75 76 83 82 70
71 67 65 70 62 62 57 50 46 42 41 41 42 45 50 53 45 41 42 48 63 84 93 86 78 72 69 73 74 80 79 79 76

GFSFLT1_250_rhum_012.txt.gz
RH
73 51 46 41 37 34 28 32 30 25 24 21 20 20 19 18 21 23 20 22 22 22 20 28 62 61 72 66 56 62 52 51 54
88 83 66 58 44 37 31 28 27 25 23 22 18 18 20 21 24 24 26 23 24 24 28 51 80 71 86 85 66 55 61 56 52
93 83 74 56 43 34 28 29 26 23 20 16 17 21 22 23 25 27 28 26 37 36 39 46 66 66 70 62 57 58 52 60 56
68 64 53 47 40 32 31 26 21 19 18 21 24 25 25 26 28 32 40 55 69 65 46 57 72 91 81 76 64 52 52 48 62
56 51 57 39 37 35 28 20 18 21 26 26 28 25 33 47 60 72 77 85 64 44 42 63 87 69 64 63 62 56 53 64 67
65 50 41 47 40 28 23 20 24 25 27 30 32 39 50 61 62 57 66 70 55 51 66 90 85 78 67 65 66 62 68 60 53
54 52 46 41 27 26 22 24 28 31 32 37 39 41 44 51 56 58 70 78 75 95 86 88 81 65 73 73 86 69 61 59 71
54 46 36 24 30 24 26 30 30 32 36 39 43 50 52 52 55 63 76 86 71 81 83 74 65 75 73 68 67 58 72 58 82
51 28 27 29 27 29 30 31 36 37 42 47 41 46 50 56 62 73 79 77 85 78 76 80 68 58 69 91 70 64 58 76 82
24 28 25 26 30 32 35 39 40 42 51 48 45 47 53 69 77 84 90 84 90 62 57 56 49 63 79 95 72 66 73 82 76
36 28 28 32 35 41 41 41 39 43 51 49 48 49 54 50 50 50 59 54 52 44 46 45 56 85 100 84 70 77 81 90 67
31 30 31 38 42 42 42 40 35 40 46 38 45 62 61 54 53 44 42 50 54 53 54 49 76 100 91 70 76 79 90 82 67
33 35 36 39 42 42 39 36 38 42 42 54 63 61 48 51 55 62 68 65 47 46 45 53 60 99 90 76 80 78 90 73 64
41 42 40 40 42 46 48 41 36 43 50 66 71 68 74 65 58 50 45 46 42 43 53 63 48 60 71 68 76 84 85 72 68
64 63 56 54 51 49 48 44 51 56 68 79 75 64 46 42 45 43 42 40 41 43 50 63 59 45 56 59 72 75 78 73 69
74 75 62 41 36 42 44 48 61 73 68 58 49 41 44 49 49 44 44 45 57 67 65 62 68 54 44 47 70 76 72 70 73
50 45 41 38 40 44 47 52 64 68 64 57 42 46 53 64 79 77 74 72 74 74 78 74 73 72 53 53 74 80 71 67 74
46 43 43 43 44 44 48 62 70 62 70 72 55 51 58 74 98 88 85 85 84 81 75 71 88 97 65 53 67 68 66 62 70
44 42 39 38 39 43 57 66 51 56 61 69 60 66 68 77 85 100 89 81 79 82 78 91 87 100 94 54 53 60 59 59 74
49 48 45 44 44 54 72 58 56 63 63 73 89 90 90 100 83 64 66 58 58 65 72 77 84 100 100 77 50 49 58 63 71

GFSFLT1_250_rhum_015.txt.gz
RH
55 49 88 72 57 45 37 44 41 37 33 27 25 23 21 20 17 18 20 22 23 26 28 30 39 42 39 37 43 47 50 49 45
69 67 92 99 85 76 67 57 45 38 32 27 24 22 19 16 18 23 23 26 28 31 38 42 48 48 43 40 40 45 52 55 52
78 78 97 78 72 70 54 44 37 36 30 25 19 18 18 23 26 27 26 34 40 39 45 49 53 49 46 45 57 68 66 58 60
60 66 61 62 62 52 45 42 33 32 27 18 18 21 24 27 29 28 33 38 43 42 40 48 56 50 57 61 56 57 56 59 58
91 65 66 75 62 53 43 35 35 28 22 20 24 26 28 29 32 33 37 40 37 37 40 58 69 67 72 74 67 66 69 62 64
99 78 64 65 56 46 41 38 29 26 22 24 27 30 33 36 40 42 41 39 39 44 52 65 68 66 60 51 50 49 54 78 81
75 70 75 52 44 42 34 27 27 25 26 30 32 36 38 43 37 35 37 39 41 46 62 65 51 46 48 50 54 55 70 93 97
82 72 62 48 50 30 27 28 28 26 30 34 38 37 43 45 43 36 34 35 42 47 52 45 42 55 60 51 46 51 87 100 96
66 70 61 55 28 30 26 26 28 34 36 39 36 36 47 54 48 40 46 56 54 52 53 51 59 55 41 39 45 54 57 93 90
77 66 49 31 35 28 26 28 34 38 42 40 39 39 47 56 48 52 65 66 54 57 53 52 51 47 43 43 48 47 48 60 80
70 45 32 37 30 29 30 33 38 44 42 41 40 46 49 52 51 60 68 68 63 54 43 46 46 43 43 47 55 62 59 50 51
42 36 37 36 32 34 33 36 39 41 42 43 42 39 40 43 50 59 82 71 60 43 47 53 55 62 66 72 70 62 69 66 52
50 39 37 33 34 34 34 36 38 40 43 42 33 36 44 52 69 82 84 58 45 45 53 68 82 86 91 91 87 77 63 74 74
50 37 38 38 40 42 43 46 46 46 34 30 35 42 46 52 62 68 62 49 48 54 62 84 94 99 100 92 85 83 75 73 84
44 41 43 46 59 60 59 61 62 56 42 39 42 43 47 56 63 61 54 59 61 61 70 77 96 100 100 99 91 76 71 81 88
44 52 60 62 64 58 52 47 45 47 41 37 41 40 45 58 65 53 58 65 73 79 90 92 97 100 100 99 87 76 64 68 90
43 54 57 56 56 56 48 38 35 32 33 34 36 40 48 79 66 56 66 73 86 91 90 95 96 100 100 95 77 73 70 72 72
41 45 48 46 43 46 43 41 39 33 36 40 39 42 65 81 80 67 77 86 84 88 100 100 100 100 99 78 84 84 66 60 66
45 46 44 46 48 46 50 52 54 63 55 56 54 56 60 53 51 56 71 97 100 100 100 100 100 100 89 82 86 72 52 57 56
46 50 51 51 53 55 59 67 61 54 56 64 61 52 54 59 58 54 65 73 82 99 100 100 100 96 85 78 78 74 68 60 54

GFSFLT1_250_rhum_018.txt.gz
RH
80 95 81 73 64 56 66 63 58 43 42 41 46 46 28 27 23 20 18 20 23 25 26 29 35 33 33 31 28 27 34 34 38
100 100 97 77 58 55 58 54 56 65 54 42 38 32 28 21 18 19 24 26 28 28 31 32 36 33 28 31 35 39 42 51 46
100 92 69 49 49 49 50 56 51 52 43 36 36 30 22 19 21 26 28 30 31 34 34 37 26 29 34 43 43 46 45 49 52
100 67 55 49 72 70 62 54 57 53 47 38 33 27 21 25 27 31 32 36 37 39 38 24 29 37 42 40 41 42 51 50 42
98 74 69 89 73 66 68 61 44 45 40 34 29 26 26 28 32 33 34 38 41 32 28 30 34 40 46 45 46 48 58 49 41
100 91 80 82 59 74 71 56 49 44 32 30 26 25 29 31 32 38 42 47 40 36 30 34 34 38 48 47 43 49 46 43 42
97 96 80 51 64 64 58 53 53 32 27 27 27 27 30 35 37 36 40 42 44 32 29 32 38 52 56 42 40 44 44 51 58
100 94 69 65 59 60 56 54 36 28 25 27 27 33 38 39 38 35 35 34 36 30 30 38 52 62 60 45 43 56 67 75 77
94 78 68 65 72 64 52 34 30 27 26 27 31 36 40 41 41 41 41 41 35 31 39 48 56 69 62 42 48 59 70 86 90
83 64 61 82 70 54 34 29 33 28 28 30 33 37 42 43 44 44 43 41 37 41 48 65 70 70 62 49 54 66 79 99 100
76 72 78 80 57 42 34 34 33 31 31 32 35 38 40 41 44 47 43 38 43 47 53 65 64 72 70 62 59 71 84 94 100
93 86 84 70 52 38 37 35 33 33 33 35 36 38 42 49 44 36 40 41 44 50 56 71 74 80 76 74 73 78 86 96 97
72 92 74 78 51 43 39 32 33 35 38 42 44 49 48 47 49 49 43 46 50 50 51 68 72 70 65 69 80 89 96 95 100
81 79 77 81 48 44 39 34 38 46 46 43 44 45 42 42 44 44 44 45 43 46 45 54 66 65 62 68 80 89 98 100 100
66 73 94 75 45 44 41 40 52 55 52 48 54 48 48 44 41 37 35 36 39 40 44 56 77 87 74 64 65 81 90 95 100
81 88 65 40 39 42 41 42 50 51 51 49 48 47 47 45 44 41 41 40 44 48 54 60 63 67 61 59 74 92 100 100 100
75 64 50 43 42 44 47 42 44 46 48 38 38 38 40 44 48 61 62 62 60 62 66 60 67 68 67 76 90 95 96 100 100
66 52 47 46 48 53 52 45 41 41 40 40 38 36 39 43 66 69 78 77 82 85 86 90 92 82 87 96 95 100 100 100 100
46 51 57 60 59 59 63 65 63 61 53 60 70 68 61 54 52 69 72 76 86 94 95 96 98 91 86 93 96 100 98 92 96
52 53 53 60 65 64 63 66 66 72 79 74 72 73 75 73 59 51 62 58 54 59 72 68 67 82 94 87 96 100 100 100 100

GFSFLT1_250_rhum_021.txt.gz
RH
32 100 100 90 73 96 75 63 50 48 56 49 47 59 61 48 35 33 29 20 18 22 25 28 30 32 31 28 25 29 30 34 34
97 100 100 100 100 97 68 50 44 50 55 56 51 53 49 40 34 30 21 19 23 26 30 33 34 34 32 22 23 31 35 32 33
94 100 100 100 100 82 49 47 69 70 65 54 55 50 47 40 34 24 22 26 30 33 36 38 39 37 23 20 26 34 43 33 35
99 100 100 100 99 66 63 77 72 58 63 52 47 47 40 35 31 24 28 29 34 36 38 41 42 28 21 27 34 41 45 38 36
89 100 100 99 91 91 70 75 61 58 54 52 51 43 34 32 29 26 29 32 36 38 42 47 38 32 32 33 39 45 48 44 40
100 100 100 100 100 86 76 60 47 54 60 50 47 33 27 27 26 26 29 34 35 38 36 39 40 39 34 38 42 52 58 60 47
100 100 100 100 95 85 87 66 56 57 58 47 37 27 24 26 26 27 31 35 40 38 37 40 34 29 32 38 45 62 69 70 63
100 100 100 100 100 93 75 63 62 66 50 32 30 28 26 27 28 30 37 40 40 41 41 39 37 35 38 43 50 53 57 63 70
100 100 100 100 94 78 72 62 75 61 43 31 34 30 28 29 31 34 37 40 41 41 41 38 32 33 38 42 47 50 56 61 71
100 100 100 96 86 74 87 74 66 55 38 33 32 30 31 31 33 34 36 38 40 43 44 37 35 37 40 45 49 53 61 75 79
100 100 98 95 81 77 79 57 62 59 40 37 34 32 34 34 36 38 43 48 50 51 52 45 40 40 42 49 50 48 48 61 76
100 100 98 83 74 79 68 64 68 68 45 39 32 34 37 43 49 53 56 63 57 48 45 43 42 40 38 41 42 44 51 53 63
93 78 72 75 71 65 76 63 71 77 50 42 39 38 44 55 59 58 55 53 48 47 41 37 38 40 42 43 45 50 53 60 65
64 60 55 54 60 73 61 74 85 58 46 42 44 41 42 50 52 49 48 46 42 41 40 39 38 39 44 48 51 58 64 63 65
61 66 61 69 76 78 71 72 55 44 37 41 45 45 44 43 45 43 43 42 38 37 37 43 45 45 47 50 57 58 58 60 68
73 84 85 80 77 74 66 61 50 38 32 32 36 42 43 44 43 45 46 43 44 43 44 47 51 52 53 52 52 53 52 54 62
92 86 81 81 71 57 49 41 42 45 41 33 32 36 44 44 44 47 53 59 70 80 80 67 72 73 70 71 72 70 67 74 84
62 49 44 46 51 52 51 47 39 39 44 38 34 35 37 37 56 72 79 84 85 79 77 79 80 77 76 77 84 87 90 93 86
45 53 54 53 50 48 47 46 44 42 43 50 56 48 43 41 44 54 50 51 57 69 90 99 100 99 90 83 81 86 81 85 87
59 53 51 49 46 44 42 44 47 56 65 72 70 66 58 56 47 52 63 60 57 55 58 65 69 78 71 70 62 53 47 48 44

GFSFLT1_250_rhum_024.txt.gz
RH
14 30 24 26 89 100 99 87 85 92 68 52 44 53 55 55 46 48 50 43 36 32 23 18 22 26 30 33 34 34 36 22 27
16 36 38 62 100 100 100 100 100 76 62 48 68 66 66 56 57 51 47 44 37 26 20 24 29 32 35 36 36 39 22 22 31
21 30 71 98 100 100 100 100 100 78 52 58 72 54 58 52 52 48 42 39 34 24 26 29 32 34 37 40 42 36 19 23 32
23 56 100 100 100 100 100 100 100 59 91 77 56 53 54 50 48 46 36 34 31 25 28 30 34 38 42 46 43 32 27 27 31
28 66 100 100 100 100 100 89 71 97 72 57 54 50 57 52 46 38 32 30 31 30 34 37 40 40 39 38 40 39 37 33 36
40 72 100 98 88 100 100 100 100 82 73 64 60 58 60 44 35 33 27 30 31 33 39 40 39 44 44 41 41 40 36 35 40
72 99 100 100 100 100 100 100 100 92 84 64 59 63 59 40 34 33 29 32 31 32 35 38 42 42 42 44 44 44 38 36 37
60 53 100 100 100 100 100 100 100 86 69 67 67 57 57 37 32 34 28 29 30 31 35 38 42 42 41 42 43 37 34 35 36
83 65 98 100 100 100 100 100 87 83 68 66 66 53 51 42 38 36 30 31 32 32 34 36 37 38 41 48 47 38 38 40 39
88 73 100 100 100 100 99 99 79 85 68 66 65 52 54 53 42 39 34 33 34 35 36 38 42 44 44 42 40 39 40 40 42
100 78 90 98 100 100 96 89 98 89 70 69 67 57 62 64 40 40 36 35 36 41 45 44 43 44 43 43 42 44 46 47 43
82 92 97 100 100 100 100 94 76 72 66 65 74 65 67 56 40 38 38 38 38 41 47 48 46 47 47 46 44 42 42 40 40
100 99 95 93 88 87 81 70 66 60 48 74 75 79 74 57 44 39 38 41 43 43 44 42 47 48 48 46 45 39 36 38 40
74 73 74 64 64 64 61 52 53 64 80 78 80 73 68 58 42 38 37 38 41 42 45 46 42 38 36 38 38 38 39 40 41
49 49 41 41 50 50 62 87 92 78 74 71 65 56 48 44 42 45 43 40 40 38 36 35 36 38 35 31 31 34 40 46 55
39 46 62 76 94 97 84 74 64 54 44 42 44 46 50 51 45 47 46 45 50 43 38 35 33 33 38 49 57 56 54 57 69
100 100 100 100 87 74 62 45 45 47 44 40 40 47 64 57 55 56 55 56 56 54 54 46 51 51 56 52 48 53 56 58 64
85 75 71 68 59 45 48 52 47 52 59 55 41 38 41 42 59 63 60 53 47 46 51 57 67 72 68 72 74 67 61 53 48
57 56 54 49 51 61 61 61 56 50 46 56 58 48 38 35 38 48 54 62 66 71 76 86 86 74 63 56 52 54 49 46 44
48 50 55 63 67 62 59 54 48 50 55 58 66 76 77 59 40 37 36 41 46 60 59 51 48 43 42 40 42 43 41 43 42

GFSFLT1_250_rhum_027.txt.gz
RH
21 17 13 11 13 20 26 28 52 98 67 60 63 85 59 56 66 63 63 62 53 49 47 44 40 33 22 21 25 28 32 34 34
20 16 12 12 17 24 25 68 100 100 100 100 100 73 56 52 74 56 58 61 48 45 43 43 38 27 21 26 29 32 34 36 41
20 14 12 14 18 27 43 99 100 100 100 100 100 83 64 87 61 54 58 56 52 46 41 36 34 27 28 32 36 37 40 45 48
17 12 14 16 19 50 84 100 100 100 98 91 100 76 84 65 56 53 60 60 46 40 36 33 33 32 37 39 41 44 43 40 39
13 13 14 17 24 94 100 100 100 100 100 96 98 100 78 70 56 58 68 58 40 32 32 32 35 36 41 41 44 45 44 45 46
12 13 16 18 33 100 100 100 97 93 92 100 100 100 85 74 54 68 57 53 36 30 28 27 34 36 38 45 45 45 46 44 43
11 14 20 29 31 75 100 100 97 100 100 100 100 100 90 67 59 67 54 51 40 37 32 32 34 34 35 41 43 44 42 42 41
12 16 19 41 97 100 100 100 100 100 100 100 100 96 80 71 63 62 54 51 47 40 37 34 33 32 32 35 37 38 39 39 40
15 22 27 76 71 90 100 100 100 100 100 100 100 85 70 60 64 60 61 54 52 44 41 36 34 33 33 33 33 34 37 41 40
19 32 48 63 61 57 86 100 100 100 100 100 86 75 68 68 66 60 68 58 58 52 39 39 37 36 37 38 41 44 43 40 40
20 36 50 96 96 84 97 100 100 100 100 100 97 95 84 70 62 58 82 78 75 56 43 39 36 34 35 35 37 41 42 45 46
31 67 71 97 100 100 61 82 96 98 93 96 82 62 62 57 54 70 83 83 79 67 39 30 31 32 32 34 36 39 41 43 45
24 51 89 100 89 90 96 83 79 81 75 74 68 57 57 54 83 75 68 67 66 54 52 40 32 32 35 38 38 42 43 42 41
22 28 42 49 66 80 77 65 62 56 57 58 51 61 90 92 79 65 61 50 48 49 52 58 61 55 45 39 44 49 53 49 45
16 18 24 32 38 41 40 47 44 52 72 95 98 89 76 60 49 49 50 54 55 56 59 56 55 58 62 63 58 42 43 49 51
38 29 27 33 41 53 67 87 100 99 93 84 74 62 50 59 55 53 62 63 65 62 58 58 55 58 61 59 63 57 46 40 41
81 85 83 86 94 100 99 100 99 94 73 52 45 55 63 58 57 54 60 72 79 82 77 66 56 46 39 37 38 39 41 47 50
66 66 69 79 85 85 78 69 62 59 59 51 50 48 48 53 77 93 89 81 75 74 73 73 70 65 63 62 62 62 59 51 50
38 45 49 47 45 41 43 46 48 53 58 61 62 52 44 44 51 64 71 71 78 83 76 69 67 65 62 55 50 43 38 36 36
41 41 42 42 41 41 45 48 50 53 55 54 58 65 64 62 57 49 48 49 46 54 58 57 55 54 46 40 37 34 35 41 45

GFSFLT1_250_rhum_030.txt.gz
RH
21 19 22 22 20 21 18 13 12 16 23 35 54 98 77 59 68 88 61 54 65 61 54 52 51 48 44 46 45 33 21 23 28
23 20 24 22 21 20 15 12 13 16 22 32 74 100 88 100 100 89 67 70 75 51 50 50 49 45 42 40 37 28 26 31 36
24 22 22 23 22 18 12 13 15 18 30 83 100 100 100 100 100 97 86 74 72 54 53 55 54 42 38 35 34 28 32 39 42
22 22 22 24 20 14 12 14 16 22 68 100 100 99 100 100 95 98 92 85 74 54 54 53 50 36 32 34 34 34 36 42 44
21 24 26 26 16 12 13 15 18 58 86 100 100 100 100 100 100 100 100 95 62 49 53 51 45 37 32 31 36 38 43 47 47
32 36 29 18 13 12 15 17 58 99 100 100 100 100 81 84 100 100 100 78 61 53 51 51 49 41 34 32 35 40 41 44 48
47 32 21 16 12 14 17 20 55 95 100 100 100 100 100 100 100 100 100 86 68 50 51 53 54 52 41 36 36 39 39 39 43
32 23 20 12 12 17 20 22 38 100 100 100 100 100 100 100 100 100 93 80 55 53 56 56 61 60 52 44 42 37 36 36 35
23 19 12 8 13 19 25 40 49 70 100 100 100 100 100 100 100 100 81 68 46 53 56 56 60 65 65 53 44 44 41 38 35
20 16 11 8 14 22 28 36 95 97 100 95 100 100 100 100 100 100 98 64 59 62 59 58 64 72 68 62 50 43 40 40 39
22 15 11 12 15 25 37 44 60 48 55 81 98 100 100 100 94 93 89 80 72 54 52 57 72 77 74 60 50 41 36 36 37
26 16 13 15 18 22 38 71 98 81 73 71 91 94 96 98 82 81 75 76 57 55 58 77 67 63 60 57 50 44 42 40 38
34 19 18 19 17 39 47 59 82 98 99 87 52 55 67 68 69 61 58 53 60 99 94 82 67 54 46 44 48 51 49 45 44
33 36 30 24 17 15 42 61 56 49 55 68 72 67 47 50 44 48 76 96 88 81 64 53 59 60 58 52 47 54 58 63 65
33 42 51 56 43 28 17 17 22 30 37 39 40 43 51 71 93 98 98 87 70 54 63 61 63 67 74 81 72 63 58 61 71
32 34 38 46 62 74 72 64 61 67 66 75 90 96 99 97 94 85 88 74 63 65 66 65 65 62 61 66 71 73 67 64 59
39 37 36 38 40 48 64 70 70 73 66 61 61 75 94 76 74 67 51 59 66 71 74 70 68 70 67 65 60 55 56 53 52
66 65 50 41 40 40 40 41 45 51 48 44 39 44 49 51 54 58 60 62 66 69 68 65 70 74 70 66 61 59 58 57 57
38 36 60 70 72 70 61 60 62 61 64 67 71 66 62 64 61 71 77 75 82 96 90 83 82 76 65 61 58 56 48 42 42
20 22 22 22 26 31 35 38 40 46 44 37 42 62 67 61 53 48 66 67 73 78 90 92 82 69 63 58 54 45 43 45 40

GFSFLT1_250_rhum_033.txt.gz
RH
23 22 21 26 30 34 26 20 21 22 22 19 15 15 21 34 53 35 53 76 83 99 83 58 61 56 50 48 47 46 44 43 44
22 25 28 26 29 33 23 20 20 21 22 18 14 16 24 34 53 76 84 94 100 100 89 76 70 68 51 46 47 46 39 40 38
24 25 29 24 20 18 19 21 23 24 20 14 14 17 24 40 75 96 100 100 100 100 94 84 78 61 45 41 46 42 32 36 35
30 24 20 16 18 19 22 25 29 24 15 14 16 18 36 94 100 100 100 100 100 100 100 99 86 68 50 44 46 42 35 32 36
19 15 16 22 29 34 38 33 27 16 14 15 17 33 96 100 84 78 93 100 100 100 100 100 86 67 50 43 46 45 39 33 36
15 18 27 39 42 44 39 26 18 14 14 17 19 45 89 89 76 100 100 99 76 85 100 99 96 73 51 42 45 51 49 39 35
24 28 50 52 48 37 24 20 15 13 15 18 27 89 100 100 100 100 100 83 100 100 94 92 93 75 54 44 46 54 57 54 40
40 63 64 47 33 24 20 15 11 14 16 19 56 100 100 100 100 99 95 100 100 100 100 95 78 66 53 41 40 55 56 64 66
65 59 44 33 24 21 15 10 11 17 20 20 29 79 100 100 100 100 100 100 100 100 100 100 99 85 65 58 55 49 51 69 73
55 43 34 25 24 22 14 10 13 21 24 37 46 49 93 100 100 100 100 100 100 100 99 92 84 82 72 66 66 56 65 79 81
50 40 27 26 27 22 14 12 16 20 29 35 47 91 100 100 100 100 100 100 100 93 84 95 88 77 68 65 55 66 91 90 79
39 29 24 26 27 22 18 18 18 20 29 40 71 73 69 66 71 83 90 93 91 91 77 76 72 62 59 50 82 90 84 74 62
37 31 30 29 28 30 31 28 22 18 26 31 40 62 78 82 85 81 70 58 56 62 62 62 60 48 60 93 95 89 70 58 67
48 36 29 30 31 32 34 41 45 36 21 15 28 43 46 46 50 48 46 40 41 40 38 46 70 93 94 94 81 58 58 65 68
55 39 35 36 37 34 33 33 33 41 54 57 50 41 38 39 43 47 55 63 69 79 86 82 77 74 79 85 66 66 68 65 64
70 61 52 53 54 51 47 41 39 37 40 44 53 59 62 66 75 81 77 74 69 66 63 62 60 62 53 55 60 65 67 67 69
54 48 49 45 41 32 34 50 59 56 50 48 46 49 53 51 50 52 55 56 59 61 62 64 68 70 73 78 85 85 77 74 76
20 20 19 16 16 19 18 20 24 36 43 42 55 64 79 91 96 93 87 83 85 84 76 78 77 71 67 64 58 62 53 47 50
16 16 14 12 13 14 14 14 15 17 19 21 19 20 22 30 50 76 80 70 62 60 64 63 63 66 73 76 79 76 71 70 69
22 21 21 20 17 15 14 14 13 13 14 15 16 16 17 15 13 14 17 25 29 32 40 54 66 73 76 86 88 79 74 58 55

GFSFLT1_250_rhum_036.txt.gz
RH
19 18 21 23 30 28 24 22 24 25 26 24 23 24 25 27 27 21 17 24 30 44 36 43 91 84 88 61 53 51 47 42 40
19 19 18 18 20 20 23 25 23 20 21 21 23 29 28 27 24 18 16 22 30 32 36 69 100 100 100 79 68 58 49 41 37
20 18 19 18 18 21 23 20 15 16 23 24 26 28 30 28 21 16 16 24 31 44 75 97 100 100 100 93 89 69 62 47 35
19 18 19 20 22 25 16 14 17 28 32 37 34 37 29 23 16 17 24 33 34 69 98 100 100 100 100 100 100 91 77 56 42
22 23 24 26 20 15 17 24 46 44 46 47 41 30 22 16 15 17 28 50 100 100 100 96 92 100 100 97 100 100 88 63 44
28 33 25 15 17 22 26 40 50 48 49 42 30 22 17 16 16 20 54 95 100 100 100 100 100 100 89 98 100 100 88 70 56
35 20 14 17 28 49 62 66 56 44 34 25 21 17 16 17 19 21 50 94 91 100 100 100 100 100 100 100 98 95 99 82 61
21 15 17 30 55 67 58 46 36 29 23 18 14 12 15 18 22 26 80 100 99 100 100 100 100 100 100 100 100 100 100 91 81
16 18 35 65 63 55 42 35 27 24 20 15 12 11 15 19 22 31 96 98 100 100 95 99 100 100 100 100 100 100 98 87 82
25 28 57 63 54 44 36 28 26 26 19 14 12 14 15 20 24 28 77 92 100 100 98 100 96 100 100 100 92 87 96 97 95
29 50 72 63 52 36 29 28 29 31 22 19 19 18 17 18 23 26 35 56 82 98 100 100 100 84 97 96 98 88 80 85 80
48 78 72 64 49 39 29 27 29 29 28 29 30 24 18 18 20 24 29 40 48 59 76 80 82 86 86 83 77 82 82 74 76
56 79 71 65 55 42 34 30 33 32 30 29 32 40 42 30 18 20 23 34 45 43 43 49 58 64 68 68 59 73 73 55 48
70 81 75 68 64 54 45 43 43 43 42 40 37 35 34 40 49 57 47 35 32 35 38 44 48 48 50 50 48 42 45 55 71
67 71 73 65 74 63 52 50 46 43 41 41 47 46 43 42 42 45 50 55 56 62 67 71 72 72 74 80 83 84 83 80 77
73 61 50 48 40 32 29 28 20 17 20 23 24 25 37 53 49 48 46 46 48 51 55 55 54 57 55 55 53 55 60 64 66
36 37 31 26 19 15 15 14 14 13 13 14 14 14 15 17 18 21 28 42 60 63 62 67 66 64 64 67 65 65 67 73 84
20 20 19 18 19 19 18 18 18 17 16 16 16 16 17 17 17 16 18 21 23 22 21 20 20 24 29 32 32 33 33 33 32
21 22 20 21 21 22 21 20 18 17 15 15 14 14 15 17 18 24 24 24 25 25 26 29 32 31 27 26 25 24 25 26 26
22 20 19 19 19 18 18 17 16 15 14 13 13 13 12 12 11 12 18 22 24 24 25 25 24 24 24 24 25 25 26 28 31

GFSFLT1_250_rhum_039.txt.gz
RH
50 36 28 23 20 18 17 16 16 16 16 16 17 18 20 20 18 19 22 25 30 29 26 24 19 28 51 44 54 77 80 81 66
57 42 35 29 24 21 18 18 17 16 17 18 21 18 13 16 21 28 34 37 35 29 27 21 23 44 41 39 46 94 100 87 87
63 54 34 25 22 20 21 25 22 21 18 14 14 14 17 25 28 30 32 34 34 28 21 19 31 42 48 53 94 100 98 100 100
53 38 31 24 24 30 29 26 18 15 13 16 20 29 30 39 39 39 44 36 29 21 19 28 36 35 32 69 100 100 100 100 100
50 39 34 26 26 31 30 17 14 15 24 39 42 49 49 48 53 46 37 28 19 18 18 30 37 60 100 100 100 90 96 100 100
44 38 33 28 26 32 22 16 17 31 48 61 57 52 46 41 34 27 23 19 17 17 21 43 56 100 100 94 98 100 100 100 100
42 36 34 30 31 29 20 18 34 51 54 46 42 34 28 24 20 16 14 13 15 18 22 44 77 100 100 100 100 100 100 100 91
41 40 36 41 36 28 17 25 50 57 48 40 32 26 25 22 17 12 12 12 16 23 26 41 75 99 100 100 100 100 99 100 100
45 39 43 52 35 22 21 43 58 52 42 33 28 29 29 20 16 15 15 14 16 21 27 44 88 100 100 100 100 94 100 100 100
50 46 67 52 29 19 47 57 52 50 37 29 29 28 30 31 26 23 21 18 16 19 23 36 70 89 100 96 100 100 100 100 100
62 63 71 42 17 28 58 61 59 48 39 31 30 29 28 29 34 38 38 27 18 20 21 24 32 71 81 89 100 96 100 100 100
69 84 52 24 27 48 63 66 59 55 52 45 43 40 40 39 34 29 29 37 47 36 21 23 25 30 39 76 86 90 79 88 95
94 72 28 24 49 61 64 60 67 72 63 53 50 46 44 42 39 40 43 39 38 37 43 50 40 29 28 31 36 42 47 50 55
84 41 23 49 69 67 63 54 54 47 34 30 29 24 18 16 19 20 20 22 31 47 48 44 43 45 50 52 50 50 50 46 43
55 20 36 56 40 48 48 37 25 22 20 19 18 17 16 15 15 15 15 15 15 16 18 27 40 50 49 46 45 47 51 55 60
22 30 32 27 26 26 24 24 24 22 23 23 22 20 19 17 16 16 16 15 16 16 14 14 15 17 18 22 33 44 48 46 45
32 24 23 23 22 23 23 22 22 22 21 22 22 24 21 18 16 15 16 15 15 14 15 16 15 15 16 16 17 20 22 28 38
26 23 22 23 24 24 24 23 21 20 19 19 21 23 24 26 27 23 19 17 17 16 16 16 16 15 14 14 14 14 15 16 18
24 24 25 25 24 23 22 21 20 20 19 18 17 18 19 20 23 23 22 21 22 22 23 22 20 17 15 14 13 14 14 14 13
25 26 26 25 22 21 20 21 21 18 17 17 18 18 17 15 15 16 18 19 20 21 23 24 24 23 22 22 21 20 20 20 20

GFSFLT1_250_rhum_042.txt.gz
RH
65 100 74 79 74 56 49 43 32 25 19 20 22 19 18 17 15 13 12 13 15 19 29 31 38 40 42 37 29 26 28 49 32
77 75 81 98 82 68 51 39 33 28 21 21 20 19 16 13 12 13 17 19 24 28 39 42 40 43 37 31 29 27 33 62 33
100 71 74 91 74 59 43 37 29 23 22 21 21 20 14 14 18 26 29 36 34 39 44 38 41 38 31 26 24 29 42 51 36
100 74 77 72 77 50 46 38 31 26 21 22 24 20 15 30 43 52 51 46 44 50 47 45 40 33 28 23 22 44 42 52 48
100 84 98 72 52 46 44 34 30 29 27 28 22 17 26 44 46 39 36 35 33 31 29 28 26 23 19 20 23 37 43 80 100
68 67 66 56 46 41 42 36 34 36 34 30 20 21 40 46 42 30 25 25 24 21 18 16 16 16 18 19 27 33 61 100 100
78 76 69 57 45 54 46 37 38 42 41 27 21 35 47 45 32 25 25 26 20 16 13 13 13 14 15 19 40 54 94 100 100
64 65 56 62 55 50 46 44 42 46 32 28 36 47 47 42 28 25 25 28 26 23 20 19 17 15 20 26 27 59 78 100 100
71 72 67 60 55 55 52 49 50 44 29 39 52 58 51 40 32 32 30 28 25 26 32 30 22 18 18 21 36 42 58 98 100
90 78 72 59 57 52 63 60 70 37 30 47 57 59 60 56 49 45 46 44 40 37 34 30 30 29 19 19 25 34 44 75 88
84 72 66 55 57 72 71 79 49 29 40 50 54 69 69 58 50 49 45 40 37 37 38 40 41 39 36 32 23 23 25 40 76
76 74 65 70 77 96 91 73 36 32 39 60 52 50 43 34 31 26 24 21 16 14 15 17 19 25 38 42 41 39 31 26 34
90 84 90 82 95 98 79 44 24 28 38 40 35 26 24 21 17 16 16 16 16 15 14 13 13 12 13 14 16 28 38 41 39
96 100 100 99 94 87 45 24 24 23 25 24 24 23 20 19 19 18 16 16 16 16 15 14 14 15 15 15 14 13 13 18 30
100 100 100 100 85 60 26 22 22 21 22 23 22 21 22 22 22 22 22 21 21 21 21 20 18 17 16 15 15 15 15 14 12
100 100 100 87 66 35 22 22 22 24 24 23 23 23 24 24 23 22 21 20 21 21 21 23 24 23 19 17 16 15 14 13 13
100 100 92 69 39 27 24 23 25 24 24 24 24 23 23 23 23 22 20 19 20 22 22 21 19 18 17 16 15 14 13 13 13
99 92 59 37 30 27 26 26 25 26 23 24 22 23 25 27 29 24 21 20 23 21 19 17 15 13 12 11 11 11 12 13 15
86 51 36 32 30 28 28 29 29 28 26 24 22 22 25 26 24 25 23 25 26 24 20 17 16 15 15 15 16 16 16 16 16
39 36 34 32 30 31 30 30 29 27 27 26 24 23 23 22 20 20 21 24 22 18 16 16 18 20 19 20 20 21 21 20 19

GFSFLT1_250_rhum_048.txt.gz
RH
47 48 48 45 44 45 61 76 73 86 86 62 52 55 47 55 58 49 38 38 31 23 24 23 19 28 39 38 43 47 41 34 34
64 58 56 49 49 52 77 100 100 100 98 99 76 64 60 68 58 49 42 37 35 29 23 20 24 37 40 30 30 38 48 58 55
66 65 62 55 55 59 80 100 95 73 61 67 64 64 67 64 49 48 43 39 34 30 23 23 30 40 30 23 24 26 28 34 40
76 71 62 56 64 83 96 100 90 92 77 66 60 65 65 57 55 42 39 39 41 33 23 26 35 31 25 23 26 25 23 22 23
94 84 79 75 100 100 100 96 92 77 75 68 62 62 61 69 60 47 44 40 39 30 21 29 42 33 32 28 24 24 20 15 14
99 100 100 100 100 100 100 100 93 75 74 75 68 70 74 73 59 55 48 44 43 26 23 34 49 43 40 41 38 35 32 28 26
81 85 99 100 91 83 97 98 91 75 75 72 71 74 82 72 63 61 54 53 39 27 35 49 54 49 46 42 38 33 31 31 32
94 88 80 82 79 77 83 95 100 93 85 85 81 76 78 66 71 63 61 56 35 28 42 58 54 40 32 26 21 18 14 14 15
100 97 93 80 81 80 80 87 86 91 90 94 98 96 85 79 82 72 63 48 26 24 37 41 34 19 15 16 17 17 16 16 16
88 84 89 90 87 81 94 94 84 82 90 99 100 100 90 88 87 79 68 35 24 23 22 18 17 18 17 17 18 18 19 18 17
63 67 82 84 88 90 88 83 79 88 88 100 100 100 98 100 99 82 65 25 16 16 16 16 17 18 18 18 18 18 19 19 20
78 85 93 98 91 90 91 79 84 83 92 100 100 100 100 100 99 86 55 20 18 17 18 18 19 19 18 19 20 21 21 21 22
53 45 56 74 78 80 67 80 97 82 90 100 100 100 100 100 97 78 35 20 20 19 19 20 20 21 22 22 23 24 24 24 25
17 19 21 38 50 53 61 62 70 83 100 100 100 100 100 100 85 54 22 21 22 23 25 25 25 25 25 23 23 23 23 23 23
29 31 28 29 33 39 49 76 85 100 100 100 100 100 100 96 82 32 24 24 24 25 26 26 28 28 27 27 29 27 25 26 24
21 19 19 20 48 76 84 100 100 100 100 100 100 100 100 86 41 27 26 25 27 30 30 32 32 34 36 34 31 28 27 27 25
18 16 19 21 29 43 94 100 100 100 100 100 100 100 79 42 31 28 28 30 33 35 34 33 40 44 39 34 30 27 27 27 24
18 18 20 22 30 90 100 100 100 100 100 100 100 84 44 33 32 32 34 37 37 38 40 44 43 38 34 33 30 29 28 25 22
21 23 24 25 57 94 99 99 100 100 100 100 72 45 39 41 46 51 50 44 41 42 46 44 41 35 33 27 27 24 21 20 19
22 27 31 53 89 100 90 98 100 100 96 55 40 39 43 44 53 56 49 45 46 52 51 46 41 35 31 27 23 19 20 19 17

GFSFLT1_250_rhum_051.txt.gz
RH
45 47 47 43 41 42 49 53 52 44 44 68 100 97 74 59 58 57 51 51 50 45 43 38 32 31 26 21 19 26 40 34 24
62 69 69 71 68 66 68 68 60 54 59 76 100 95 83 67 64 63 62 56 57 55 49 41 36 34 28 21 23 34 30 27 23
70 67 75 76 78 77 74 72 78 75 65 99 100 100 85 82 78 68 67 62 60 56 52 46 37 34 27 22 26 34 29 24 23
70 71 76 74 79 82 86 89 91 94 100 100 100 93 93 82 74 70 70 71 70 63 57 51 42 37 27 23 32 42 36 32 29
82 80 90 100 100 100 100 92 88 90 98 100 100 93 91 91 80 73 74 80 73 72 63 64 52 39 25 28 44 49 45 42 37
96 91 90 85 86 80 87 93 100 100 99 90 84 89 85 80 80 90 92 95 93 83 73 64 55 41 26 32 44 50 45 38 31
100 100 100 100 96 90 80 83 92 88 88 89 84 84 83 94 87 89 89 93 100 88 79 72 60 39 26 39 48 41 26 20 17
100 100 100 100 100 100 100 100 88 81 85 91 78 76 77 89 84 82 97 100 100 96 86 77 67 37 27 36 34 20 15 16 16
100 100 100 100 100 100 99 96 100 84 85 74 71 76 79 81 79 99 100 100 100 97 96 92 64 34 23 21 17 16 16 16 17
97 98 98 98 100 98 95 90 85 78 73 77 76 69 76 78 82 99 95 95 100 100 100 93 60 28 17 15 16 18 17 19 20
72 80 71 69 65 69 74 76 85 84 84 66 71 77 77 77 88 100 100 99 100 100 100 93 49 22 19 19 20 20 21 22 21
100 100 100 99 99 100 96 85 79 80 70 62 63 72 75 94 95 89 100 100 100 100 100 88 44 21 22 23 24 24 24 25 25
57 95 92 89 92 82 59 47 31 26 21 41 62 75 91 99 100 100 99 100 100 100 100 80 33 23 24 24 24 24 25 27 28
18 21 25 26 29 25 20 17 15 18 27 47 58 70 81 98 100 98 100 100 100 100 97 73 32 26 26 25 26 27 28 28 31
16 18 19 20 19 18 17 15 15 20 23 50 85 92 96 99 99 100 100 100 100 100 88 44 30 29 28 29 31 32 32 33 35
15 16 20 23 17 16 17 17 16 19 19 25 47 87 92 95 94 100 100 100 100 89 48 32 30 32 34 37 35 34 35 38 38
22 26 48 30 23 20 20 16 17 18 20 25 66 80 92 87 99 99 100 100 91 52 36 34 34 37 40 36 37 40 42 41 39
56 59 72 52 35 28 18 18 18 20 24 45 62 76 84 93 90 92 97 83 55 39 38 38 36 38 37 39 42 43 43 43 40
57 68 71 61 47 26 22 20 22 24 38 71 82 90 90 91 100 99 73 46 42 42 37 37 37 38 37 38 40 44 44 41 40
35 41 52 39 38 34 28 32 25 31 56 84 96 92 88 82 83 75 50 46 41 43 48 50 44 43 42 46 48 48 44 44 40

GFSFLT1_250_rhum_054.txt.gz
RH
33 37 42 40 39 43 46 50 53 56 56 60 68 70 63 61 78 100 100 99 75 64 58 54 52 51 52 53 47 46 42 31 20
41 41 42 57 70 76 75 75 78 84 83 81 78 72 70 72 94 99 91 82 80 78 67 54 55 58 65 58 53 48 46 28 21
42 42 43 48 64 78 70 72 72 74 74 76 77 78 78 91 97 98 87 85 84 76 70 68 62 65 69 70 62 51 45 28 24
67 60 59 58 55 54 59 76 88 91 95 96 86 84 90 92 94 87 70 78 80 73 74 76 74 72 77 72 67 61 51 28 29
88 78 74 71 76 75 80 80 74 75 84 86 87 99 91 85 91 82 86 92 86 84 82 87 78 84 92 83 74 71 55 28 34
100 100 100 98 93 89 88 95 94 89 89 97 100 100 100 92 87 82 76 80 78 78 83 88 94 98 95 83 79 83 52 28 31
100 100 100 100 100 100 100 100 100 100 100 100 100 100 100 93 87 73 77 72 70 77 84 96 100 96 94 85 92 93 48 30 29
100 100 100 100 100 100 100 100 100 100 100 100 100 100 95 88 97 72 70 64 76 80 87 88 96 95 91 89 97 96 57 29 23
52 69 100 100 100 100 100 100 100 100 100 100 94 100 100 88 74 62 60 65 70 80 82 91 92 94 100 100 100 96 61 29 17
35 35 40 68 82 93 95 97 100 99 96 81 74 78 64 53 68 69 73 69 75 88 93 100 99 90 100 100 100 93 63 30 19
21 23 26 29 33 44 67 61 81 81 69 75 76 73 72 69 62 38 37 62 100 100 98 100 100 100 100 100 100 91 60 32 22
13 16 20 22 25 28 67 100 100 100 100 100 78 86 60 22 18 20 28 51 81 96 100 100 100 100 100 100 100 93 56 27 23
12 13 14 17 19 21 22 30 73 96 89 87 68 49 20 19 23 20 27 48 68 73 85 97 100 100 100 100 100 93 57 34 28
11 11 12 12 13 15 18 19 20 21 24 22 20 18 20 16 16 20 45 43 73 87 82 90 100 100 100 100 100 95 56 34 30
13 13 15 15 18 16 14 15 17 17 17 17 18 19 21 16 16 18 26 61 73 82 96 100 100 100 100 98 97 70 38 32 33
18 35 42 32 23 21 18 15 14 14 16 17 18 17 18 18 17 19 30 34 60 73 100 100 100 100 100 98 85 48 35 33 36
20 18 23 32 30 26 23 20 21 18 22 24 21 20 19 20 19 22 33 48 77 91 94 89 88 93 89 80 60 41 39 41 39
23 27 41 45 44 43 42 33 21 26 33 31 25 20 23 26 34 26 29 48 72 81 87 84 81 80 66 50 43 43 41 39 40
25 25 35 43 36 32 34 42 51 47 40 37 22 21 27 30 32 40 51 65 74 80 74 65 58 59 51 44 42 37 34 35 36
30 26 25 28 36 38 51 66 79 78 72 46 31 29 32 29 34 64 47 71 81 82 74 63 61 53 46 47 46 44 42 44 44

GFSFLT1_250_rhum_057.txt.gz
RH
33 35 29 26 27 34 36 43 49 49 51 54 59 61 70 78 83 87 81 78 76 72 59 84 92 79 74 67 61 58 56 56 63
53 57 58 44 37 39 41 42 48 52 60 70 81 87 90 94 88 69 83 73 81 76 79 79 76 77 71 67 65 63 61 62 70
51 60 67 65 54 42 43 43 44 47 49 50 55 60 66 76 74 74 67 80 88 90 84 79 67 68 77 76 69 68 70 71 72
50 55 59 67 80 78 63 61 59 59 58 61 68 70 73 73 66 67 77 90 99 92 81 80 82 76 72 69 74 75 70 82 68
52 64 66 74 84 90 92 94 95 91 90 82 85 98 92 87 99 100 96 100 95 90 90 92 82 71 73 68 75 74 80 71 74
89 87 91 85 91 97 95 96 99 96 100 99 99 97 100 100 98 99 98 92 91 87 74 67 75 73 69 70 71 71 72 80 89
80 88 83 82 93 98 99 99 100 100 100 100 100 100 100 100 100 100 92 92 90 83 78 76 60 64 70 76 81 82 74 91 90
61 59 56 64 79 97 99 100 100 100 100 100 100 100 100 96 82 98 99 86 81 82 59 61 74 69 76 70 74 90 96 96 92
47 47 47 46 48 60 70 66 59 59 68 80 95 100 100 99 99 99 95 77 64 55 73 69 54 34 46 65 96 100 100 96 100
34 37 36 35 33 35 35 36 37 37 36 38 51 59 64 56 50 61 54 76 75 76 50 25 18 19 58 94 100 100 100 100 100
21 24 27 26 25 21 21 22 21 22 22 23 26 33 64 81 82 76 81 84 84 57 21 16 17 24 41 56 79 95 100 100 100
14 14 14 15 16 16 16 16 17 18 21 22 24 23 38 55 72 90 92 77 35 18 17 15 19 38 58 76 86 100 100 100 100
16 15 13 12 12 13 14 14 16 17 17 18 18 18 19 19 20 25 24 20 19 20 16 15 16 18 56 86 100 100 100 100 100
18 19 18 17 19 17 14 14 15 15 15 14 15 15 15 15 17 19 19 18 19 21 17 16 15 29 52 79 99 100 100 100 100
27 27 24 17 16 17 19 18 17 17 15 16 19 18 16 14 15 17 18 18 26 22 18 17 15 24 41 72 98 100 100 100 100
28 26 25 23 21 20 18 19 28 43 43 30 22 18 14 14 16 18 21 24 32 21 18 19 21 29 48 77 85 91 91 93 100
32 28 27 27 25 24 25 25 22 20 26 31 28 29 26 30 34 37 37 54 44 24 20 20 23 28 42 68 84 85 82 82 85
49 54 51 36 31 28 27 25 25 26 41 39 37 35 30 37 43 47 49 58 29 25 26 29 29 37 37 54 65 75 76 68 66
85 67 50 32 29 29 30 29 26 25 36 44 42 34 37 37 57 64 63 38 28 32 33 33 33 35 39 35 51 60 65 66 60
82 54 39 38 35 29 29 30 29 26 26 31 34 36 44 46 66 80 82 60 43 50 64 52 54 53 42 50 56 57 56 60 57

GFSFLT1_250_rhum_060.txt.gz
RH
30 30 31 30 32 28 28 30 34 39 45 39 41 48 52 50 50 52 62 67 74 78 73 61 61 85 92 97 82 75 67 74 66
31 34 36 43 46 40 38 42 49 46 42 43 48 54 62 67 71 80 73 66 60 58 59 70 75 93 95 88 84 87 78 80 67
26 33 40 49 55 57 58 56 56 65 70 66 56 58 57 55 61 67 69 67 76 78 85 100 100 96 87 87 85 85 75 67 64
34 31 29 32 38 47 44 52 58 61 63 70 85 96 94 88 88 87 90 90 91 96 88 100 96 87 90 90 82 73 65 69 62
38 39 41 40 40 40 45 52 57 68 82 88 99 100 100 100 100 100 99 100 94 98 99 99 89 92 74 79 72 78 78 53 66
33 32 37 43 50 52 56 67 80 86 80 82 86 92 97 100 100 100 100 100 97 95 88 92 85 80 71 68 77 78 61 60 63
36 36 41 51 55 64 73 78 85 82 75 64 68 86 89 88 100 100 93 96 93 77 94 86 83 74 79 71 56 52 58 56 57
31 39 46 44 50 60 66 79 74 70 58 59 59 72 70 73 76 74 68 63 75 78 83 91 88 69 60 54 59 56 38 18 23
40 37 38 40 40 44 43 44 49 47 46 44 43 46 47 47 43 42 51 53 40 46 42 36 48 53 72 80 73 36 14 14 28
31 28 27 26 24 24 24 28 31 32 32 32 31 29 27 25 24 21 21 20 20 23 42 42 58 90 90 78 34 16 13 20 33
25 22 23 20 19 18 18 20 20 20 21 21 20 20 19 18 17 18 17 18 18 21 42 43 40 49 40 23 19 16 14 16 25
17 15 15 15 15 15 15 16 15 14 14 15 14 15 16 17 18 19 17 17 17 17 20 19 26 23 19 18 18 18 16 15 30
19 21 18 18 18 18 19 18 18 17 17 16 15 13 14 15 16 16 16 16 16 17 18 19 20 20 20 18 18 17 16 17 29
20 21 22 23 23 19 19 20 21 20 18 16 17 18 18 16 16 16 15 15 16 19 20 21 20 21 20 20 21 19 17 21 32
36 32 30 31 28 29 29 29 29 27 22 19 17 16 17 19 21 22 24 22 22 25 27 25 22 22 25 29 33 25 19 24 34
49 49 36 35 39 36 33 31 28 27 27 24 22 21 20 19 20 25 32 39 36 32 31 30 31 36 39 60 48 29 25 28 36
74 79 82 73 64 47 35 29 29 28 26 27 25 24 26 26 25 27 33 38 44 44 39 44 58 71 82 84 64 34 30 35 40
94 71 57 63 61 54 45 51 53 47 28 26 26 26 25 24 27 30 35 37 44 38 41 51 71 78 79 68 39 33 35 42 46
98 80 70 89 99 73 69 68 40 31 28 28 28 27 27 27 27 26 31 42 41 38 37 46 54 56 59 58 39 37 38 42 45
100 100 100 97 91 79 81 63 43 36 35 36 34 30 30 30 29 31 30 39 44 47 43 46 55 57 65 58 48 52 62 59 51

GFSFLT1_250_rhum_063.txt.gz
RH
22 25 26 26 28 30 30 29 30 33 33 35 39 48 55 51 55 56 56 58 64 60 58 61 68 64 67 74 94 99 100 91 90
16 19 21 24 26 25 32 39 40 44 49 55 53 53 63 74 78 78 78 74 77 72 71 76 80 81 88 96 100 100 96 99 92
16 15 16 19 22 24 27 30 34 40 49 60 60 58 59 64 72 70 71 75 82 89 98 100 100 100 98 98 95 90 100 93 82
18 20 20 19 19 21 22 24 27 30 33 35 39 48 52 63 66 72 82 80 87 98 98 97 96 99 95 88 93 82 73 93 78
19 21 19 22 21 19 22 27 28 29 31 40 38 43 50 53 62 82 89 81 70 68 78 93 85 79 82 79 80 82 67 83 80
17 18 17 19 24 19 20 26 30 35 36 46 58 59 74 81 79 75 76 73 64 62 75 89 90 86 78 66 58 62 69 90 72
20 21 22 22 23 24 23 22 30 40 42 46 50 58 66 72 83 77 70 59 58 56 54 57 60 60 52 51 42 44 61 45 55
25 26 26 24 26 28 32 31 34 41 42 42 42 42 48 50 48 51 48 45 43 39 38 34 33 28 26 25 24 26 30 48 71
28 24 26 25 26 31 36 36 35 33 30 27 26 28 27 26 29 32 33 32 30 29 26 22 20 18 17 18 20 38 39 34 46
31 30 30 35 41 38 36 36 31 28 27 25 21 21 20 20 20 21 21 21 20 19 18 17 15 17 18 19 19 19 24 21 26
36 39 37 39 38 42 40 32 28 22 22 19 16 15 14 14 14 14 14 13 13 13 13 14 14 15 18 19 20 18 19 19 18
38 35 35 34 31 28 25 21 18 15 15 14 15 16 17 16 15 15 14 14 14 14 14 14 15 15 17 18 19 22 20 18 18
55 46 38 34 37 32 22 18 20 20 17 18 18 17 16 16 17 18 16 16 16 17 18 19 18 19 23 28 30 29 26 24 21
70 63 52 44 37 33 26 24 24 24 24 24 22 19 21 23 25 24 20 18 17 17 17 20 30 39 48 44 34 32 28 26 26
88 77 64 57 52 56 49 49 44 32 29 28 30 30 28 27 26 26 25 23 23 23 23 21 24 36 48 50 44 39 36 36 40
94 88 80 85 77 78 71 78 75 72 64 54 45 37 34 34 29 27 27 27 28 28 28 28 28 35 47 59 61 57 57 70 76
100 100 96 95 76 93 100 95 78 62 56 49 42 46 47 51 43 30 27 27 28 29 28 28 31 35 44 60 72 57 61 80 91
100 100 100 100 97 100 94 84 69 62 54 56 49 50 43 32 29 28 30 30 29 30 32 31 29 28 33 47 61 56 58 75 93
91 100 100 100 100 98 99 96 86 78 55 68 66 58 51 44 37 34 33 34 33 35 35 33 32 31 30 31 34 41 49 53 60
97 100 100 100 100 100 100 100 100 87 73 73 78 81 70 56 47 47 39 43 44 41 41 39 35 35 34 32 36 42 51 62 59

GFSFLT1_250_rhum_069.txt.gz
RH
12 13 15 17 20 20 20 19 19 18 18 17 16 18 18 17 17 19 19 21 23 24 26 29 30 30 32 35 42 46 51 57 54
14 16 15 16 17 18 18 17 16 16 16 16 16 16 16 16 17 18 19 19 20 21 20 22 24 30 31 38 42 44 46 56 62
16 18 19 18 19 19 20 20 19 19 19 18 18 17 16 16 18 18 19 17 18 21 22 22 23 28 32 38 39 44 51 52 69
17 18 20 21 21 20 19 19 18 19 19 20 21 18 18 19 20 20 21 22 23 23 23 25 28 29 34 41 42 42 49 49 51
20 22 22 22 22 21 21 20 20 19 18 19 19 20 21 21 21 22 22 23 23 22 26 28 29 34 34 33 30 31 32 32 36
23 25 25 23 23 22 23 22 20 19 17 18 19 19 20 22 22 22 22 23 24 35 39 40 35 32 29 28 26 22 24 25 25
25 24 25 26 25 26 25 22 21 23 22 21 23 24 25 25 24 25 24 25 28 36 39 38 32 30 26 22 18 19 18 17 18
26 28 28 27 27 28 25 26 28 29 28 30 29 28 28 26 27 29 30 32 36 36 37 32 30 26 19 16 15 14 14 15 15
29 28 29 31 33 32 34 33 37 38 37 35 33 31 30 31 34 37 37 36 33 30 25 23 20 17 16 16 16 15 16 16 17
34 39 40 42 44 47 43 47 46 42 37 37 31 29 29 38 46 45 41 38 31 26 23 21 20 19 18 19 18 17 18 20 19
46 49 52 50 53 52 56 56 51 40 34 26 31 39 41 49 55 49 41 38 36 31 29 28 28 27 27 29 28 26 25 25 25
50 55 63 54 57 68 70 52 41 32 28 32 48 61 58 54 51 48 45 42 43 47 54 49 41 38 37 37 32 27 26 24 26
61 61 58 58 72 63 56 45 34 28 34 46 57 68 66 60 59 58 62 59 55 60 58 53 49 46 46 46 41 36 31 26 24
80 79 75 74 74 54 41 35 30 35 55 60 72 69 69 66 61 54 55 61 62 64 56 54 57 60 61 54 42 36 30 28 27
91 78 79 75 62 50 42 40 40 71 80 73 78 74 69 59 54 48 51 53 54 59 65 60 58 62 67 59 51 54 45 36 35
84 77 75 70 61 54 48 44 50 63 61 67 73 74 64 62 51 59 56 53 58 60 58 58 62 69 68 73 76 75 70 53 40
73 67 62 56 59 51 50 56 63 76 75 87 81 88 81 76 66 70 58 58 52 52 51 54 64 72 71 77 81 84 84 71 65
63 59 58 56 56 58 62 62 58 70 71 88 74 79 79 66 55 50 53 57 53 54 53 55 68 77 79 72 78 78 79 82 79
62 60 62 64 62 68 63 60 59 62 71 82 91 96 92 95 74 70 71 67 67 66 61 65 70 74 79 83 78 79 81 84 78
76 78 80 73 73 82 71 74 70 89 85 83 87 92 100 100 100 97 95 88 80 79 73 66 69 77 79 74 75 74 81 92 92

GFSFLT1_250_rhum_072.txt.gz
RH
22 19 16 13 14 17 16 16 16 17 18 18 18 17 17 18 17 18 18 17 17 17 17 19 19 19 20 20 23 23 23 24 28
16 14 14 14 15 17 18 20 21 22 20 19 19 19 18 19 18 17 18 18 19 19 19 18 18 19 20 21 22 22 24 30 35
14 15 16 18 18 19 20 21 23 22 21 20 20 21 20 19 19 17 17 18 19 20 20 20 22 22 22 23 24 29 30 34 35
17 17 17 18 20 20 20 22 23 22 22 22 23 22 20 19 19 20 20 21 24 23 23 23 23 24 27 27 30 36 38 35 31
18 17 17 20 20 20 22 22 22 24 24 24 24 21 21 20 22 26 26 27 25 26 26 24 25 28 30 31 35 42 38 35 31
20 22 23 23 23 24 24 24 26 26 26 26 27 26 27 29 28 31 27 27 27 27 26 30 32 31 34 37 40 36 34 30 25
31 29 28 28 27 26 28 28 28 29 29 31 32 33 33 38 36 34 29 28 25 26 30 37 43 39 37 34 31 27 24 20 17
30 29 29 30 32 32 31 30 32 32 34 34 42 43 44 42 40 35 30 24 25 28 44 45 48 43 36 31 26 24 22 21 20
33 34 34 34 33 33 30 32 31 34 36 43 48 53 52 47 40 29 25 28 35 42 45 46 44 39 36 31 28 27 28 28 28
40 39 38 34 34 34 31 31 30 40 41 52 70 66 48 40 31 24 24 39 51 53 51 48 44 41 42 45 48 44 38 34 35
38 38 40 43 39 35 32 37 41 51 59 70 64 55 39 31 24 26 37 52 58 60 51 50 53 52 50 54 52 49 48 45 42
45 46 47 39 46 45 48 52 59 62 65 68 62 47 34 28 26 31 52 59 62 64 61 57 60 60 58 55 51 49 54 54 52
57 57 59 56 48 60 63 66 67 66 68 62 56 42 32 34 34 44 54 58 63 62 62 61 64 66 61 69 73 71 66 67 63
75 76 70 69 65 73 71 73 59 57 61 49 42 35 37 42 46 49 52 57 61 61 63 56 62 63 65 70 74 68 60 63 64
89 89 86 77 76 72 67 66 61 57 49 44 50 44 48 46 49 49 59 73 64 72 62 54 54 58 62 57 57 56 59 69 72
98 96 93 80 82 83 79 65 57 55 47 48 49 51 51 56 52 49 62 71 74 78 82 70 56 45 47 49 50 54 62 69 69
100 98 89 81 76 80 70 65 57 53 53 54 53 59 62 66 62 62 69 86 84 92 94 74 72 50 55 50 55 60 60 62 66
100 99 89 81 85 90 71 59 58 68 65 70 72 76 75 68 71 74 77 81 85 76 83 68 77 58 52 60 58 57 59 61 63
100 100 99 97 92 95 94 99 76 78 82 81 82 82 75 75 82 77 87 89 91 100 98 97 72 66 57 58 64 62 64 65 64
96 100 100 100 100 100 100 95 96 99 89 89 88 87 93 95 90 92 100 95 100 100 100 100 100 100 75 74 84 75 68 78 74

GFSFLT1_250_rhum_075.txt.gz
RH
26 25 23 20 18 14 12 13 17 19 19 20 21 22 21 20 20 21 22 22 20 19 18 20 20 21 22 23 23 22 22 24 25
22 21 18 16 15 14 14 16 18 19 20 21 22 22 22 22 24 24 23 22 21 21 21 21 23 22 22 24 26 25 25 27 29
18 15 14 14 15 16 18 20 22 22 20 20 22 23 24 25 24 24 24 23 23 22 21 21 23 24 23 23 23 25 28 29 31
15 15 15 16 17 20 19 18 19 20 22 24 24 24 27 27 27 26 27 24 23 23 22 24 26 27 26 24 25 31 38 40 38
17 18 19 20 21 20 20 21 22 26 25 26 28 30 29 26 27 24 22 23 25 26 24 28 28 27 24 27 30 38 43 43 37
20 20 22 21 22 25 27 28 29 31 32 33 32 29 26 24 24 25 24 26 30 34 35 34 27 22 26 35 37 44 43 42 37
22 24 25 28 34 36 35 35 36 36 35 32 29 27 24 24 24 25 27 33 40 38 36 26 22 26 33 47 47 43 42 39 33
29 30 34 36 38 36 37 41 38 33 30 30 26 25 24 26 30 33 40 47 50 39 28 24 32 42 54 54 50 50 45 44 44
38 41 37 46 45 44 48 41 34 32 30 32 29 26 28 34 39 42 56 58 46 31 27 34 48 59 60 54 52 54 55 53 58
52 48 50 51 54 48 41 36 35 37 36 32 31 38 40 41 45 52 54 45 32 28 30 37 48 62 63 62 58 57 58 54 56
70 66 62 58 49 43 38 36 39 46 48 48 41 48 52 49 42 47 42 34 30 31 33 40 52 62 64 61 58 57 56 54 58
57 57 54 46 41 42 39 43 54 65 58 52 53 60 53 44 46 42 36 35 36 39 45 44 51 73 69 64 67 62 64 65 69
47 48 51 46 47 43 48 62 67 75 67 64 62 59 60 52 46 39 37 38 40 39 51 48 51 64 70 72 59 63 55 56 63
54 58 57 50 49 55 60 74 74 77 72 74 72 65 60 53 45 44 42 44 46 49 50 52 51 57 67 91 89 84 69 54 45
70 63 58 57 60 72 84 90 88 90 89 80 68 64 58 55 54 49 56 55 62 52 56 57 55 58 59 65 68 72 68 61 53
78 71 73 71 65 78 100 98 100 93 84 76 70 65 59 63 60 64 73 69 67 68 61 64 61 70 79 62 69 75 71 72 51
86 82 76 76 79 80 100 100 99 92 87 82 82 88 87 74 75 88 85 91 85 79 74 75 91 67 63 71 75 73 72 66 62
80 87 89 92 88 99 100 100 99 97 99 100 87 98 94 97 98 97 95 91 86 92 98 84 93 82 82 78 77 83 79 74 74
80 81 94 100 96 100 97 92 74 99 100 99 100 97 99 94 95 98 90 94 99 97 100 100 99 100 100 100 97 99 99 100 89
94 98 100 100 99 100 100 88 100 94 92 100 100 100 100 100 100 100 100 100 100 100 99 100 100 100 100 99 86 85 79 89 82

GFSFLT1_250_rhum_078.txt.gz
RH
32 31 26 23 20 18 16 15 14 13 13 15 16 21 22 21 21 22 23 26 28 26 24 24 22 21 21 22 21 21 23 26 28
29 24 20 19 18 16 14 14 14 14 16 20 21 20 21 21 24 25 28 28 27 23 21 20 20 19 20 21 22 26 27 26 24
24 22 20 17 16 16 14 14 15 18 20 21 22 24 24 26 26 29 30 27 24 22 19 19 19 19 20 25 28 31 26 24 25
21 19 17 16 15 17 18 18 19 21 23 25 25 29 28 32 33 29 26 23 21 20 18 19 23 30 36 38 37 27 23 28 38
18 17 17 17 19 19 20 20 22 23 24 29 34 38 38 35 28 27 25 20 20 21 23 24 29 35 45 38 26 23 28 39 47
18 19 19 21 22 21 22 25 25 28 35 40 42 43 39 31 26 25 24 24 24 25 34 34 37 43 34 24 23 28 42 50 47
26 31 31 32 30 29 28 32 37 44 45 43 46 39 32 27 24 28 27 28 29 32 40 42 43 32 26 24 27 34 47 55 53
50 43 40 42 40 38 41 50 54 49 48 46 39 32 28 28 27 27 32 34 36 41 41 40 34 29 28 28 30 40 51 58 59
57 52 54 51 55 61 64 62 55 51 44 39 31 30 28 33 34 36 41 43 44 48 42 37 35 34 33 34 34 41 58 61 51
66 63 63 70 75 68 60 50 40 34 32 33 30 31 34 36 42 44 54 52 53 50 42 39 37 34 37 42 39 42 60 57 66
63 68 69 67 56 44 36 34 35 34 33 32 32 31 38 46 57 56 62 55 53 49 44 39 43 40 42 44 42 41 47 59 76
52 49 43 39 36 34 35 38 41 42 42 39 41 44 49 58 67 75 65 59 50 46 46 45 49 50 55 54 45 46 47 55 73
63 55 47 43 44 47 46 44 44 51 49 51 51 55 60 77 85 80 72 62 53 45 45 51 58 64 65 60 52 47 49 49 55
55 51 47 48 46 51 53 49 56 54 58 60 60 70 81 99 94 83 73 69 58 56 56 64 74 72 67 70 57 56 58 51 52
50 53 63 72 67 67 56 58 61 60 65 64 76 86 100 95 94 89 81 78 74 79 80 76 82 80 77 68 67 64 68 54 48
57 78 86 74 74 74 65 65 73 75 70 71 88 100 100 100 97 100 94 85 85 88 82 88 88 88 90 90 81 88 89 87 76
94 90 92 96 82 77 72 72 72 74 72 88 100 100 100 100 100 100 97 91 89 89 92 81 98 96 100 88 91 98 85 100 100
92 98 100 96 84 82 79 78 78 83 92 100 100 100 99 100 100 98 96 89 96 90 88 100 100 100 100 100 97 100 100 100 99
94 100 96 92 87 88 81 83 94 100 100 100 100 100 100 97 100 99 94 87 84 98 100 100 100 100 100 100 100 100 100 90 90
100 100 100 94 94 92 95 97 100 100 100 100 100 100 100 99 92 100 99 92 100 100 100 100 100 100 100 100 100 100 100 100 94

GFSFLT1_250_rhum_081.txt.gz
RH
33 29 28 29 29 25 22 20 17 15 14 14 14 16 20 22 23 23 24 25 29 31 28 26 22 18 19 19 19 19 18 21 26
34 33 31 28 26 22 19 17 15 14 17 17 18 20 22 25 25 26 28 32 35 31 26 21 18 21 20 23 24 23 27 29 32
33 30 27 24 21 19 18 17 17 17 18 20 19 21 23 24 25 29 36 38 34 24 22 21 22 23 23 26 29 30 33 28 23
29 26 24 22 20 18 18 17 18 18 18 21 24 26 26 28 35 38 41 36 27 21 23 26 29 30 33 37 35 34 30 24 22
24 22 21 21 20 19 21 23 23 26 26 26 27 32 35 39 42 42 33 24 22 23 28 30 38 39 42 41 37 33 29 25 24
23 22 24 28 26 23 28 30 31 34 35 34 37 44 46 46 38 30 23 21 23 27 30 36 45 50 47 44 38 35 30 29 27
30 38 35 33 39 45 42 41 41 42 42 48 51 54 44 32 27 25 24 29 30 33 34 43 47 56 49 43 38 38 32 32 32
46 43 42 42 47 52 54 52 48 51 58 58 50 34 28 27 25 26 28 32 37 34 41 56 62 55 48 43 37 42 34 33 36
44 48 54 57 52 55 53 51 53 56 44 35 31 29 27 25 25 27 32 38 38 44 54 65 66 58 47 40 42 43 40 42 39
60 60 68 68 61 57 56 53 49 45 40 37 35 30 26 29 31 32 36 45 40 49 64 76 74 61 47 45 44 44 45 46 45
73 73 74 66 63 64 63 59 52 44 39 34 32 31 30 35 37 41 46 51 50 68 80 85 69 60 54 50 53 52 52 55 50
73 85 78 66 63 56 53 53 47 39 33 33 34 36 42 43 48 53 54 56 69 86 91 91 74 67 63 56 57 64 61 69 64
73 87 90 72 60 56 51 44 41 40 41 43 44 53 51 56 64 63 60 63 87 99 98 89 78 80 79 68 62 67 68 84 75
90 100 96 80 65 53 47 47 45 49 51 57 64 67 69 69 68 70 75 91 100 100 100 100 89 84 80 75 72 65 66 80 84
86 100 92 80 66 57 50 51 58 64 65 67 77 80 82 78 79 78 95 100 100 100 100 100 100 88 82 82 78 75 80 86 92
82 91 95 82 71 58 55 58 65 71 81 83 87 88 88 86 84 97 100 100 100 100 100 100 96 97 82 85 77 91 91 100 100
86 87 87 83 78 74 72 70 79 87 92 92 89 94 90 86 99 100 100 100 100 100 100 94 86 81 86 83 90 100 100 100 100
98 89 84 84 76 78 80 88 97 96 100 88 85 89 89 86 100 100 100 100 100 98 94 92 79 86 93 95 100 100 100 100 100
96 98 92 85 83 86 86 97 100 100 96 90 92 92 81 92 100 100 100 100 100 97 78 83 98 100 98 98 100 100 100 100 100
100 100 96 90 97 93 99 90 98 100 98 95 99 87 84 96 100 100 98 94 88 90 99 89 93 100 100 100 100 100 100 98 100

GFSFLT1_250_rhum_084.txt.gz
RH
40 38 32 31 33 34 29 25 21 19 17 16 16 16 15 16 17 20 23 25 26 34 40 36 24 22 23 22 20 21 24 30 32
38 35 35 34 31 27 24 22 20 18 18 17 17 18 19 19 22 23 28 30 38 40 33 24 23 23 22 23 25 27 37 41 37
37 35 34 32 27 25 24 22 19 18 18 21 20 23 24 27 29 32 36 43 39 29 25 24 23 24 24 27 31 43 48 45 41
37 32 30 27 24 23 22 21 22 24 24 25 26 27 31 35 38 38 40 34 27 26 23 23 23 27 29 34 41 59 58 44 38
37 29 26 24 24 23 22 24 26 30 37 38 37 39 40 40 40 38 31 26 26 24 23 24 25 32 32 39 53 68 63 44 39
30 28 26 26 24 32 34 38 38 37 36 42 44 40 39 39 33 31 33 30 26 26 26 29 31 34 34 45 64 77 68 46 41
28 28 34 33 35 37 40 42 37 39 48 50 46 47 45 43 41 37 31 27 26 26 28 32 40 41 41 54 69 83 67 51 47
28 30 32 31 32 47 50 52 54 59 52 50 52 50 39 34 35 30 26 26 28 31 32 41 49 54 57 67 81 88 69 58 53
30 30 31 35 46 54 65 70 68 59 51 47 44 44 39 35 31 27 27 31 36 38 46 52 56 61 71 88 96 93 71 62 57
30 31 34 37 44 51 57 67 79 71 59 53 48 42 36 33 30 29 33 38 45 53 57 59 61 72 87 99 99 95 79 70 61
34 37 36 41 50 55 63 80 83 79 69 61 52 43 38 34 34 37 41 48 52 60 68 64 66 82 100 100 100 100 81 82 69
42 40 40 45 49 52 64 82 81 83 78 66 57 48 44 46 48 52 54 62 65 73 76 74 73 91 100 100 100 100 91 90 84
47 42 39 43 50 55 65 70 67 68 73 69 66 60 57 58 62 72 80 77 76 81 73 76 92 90 99 100 100 100 100 97 92
50 48 43 47 54 59 67 73 65 71 62 66 61 58 61 76 80 92 85 91 93 84 91 90 95 100 100 100 100 100 100 95 91
52 50 52 49 51 64 70 71 72 80 77 74 68 66 73 87 98 90 90 95 94 90 85 98 100 100 100 100 100 100 100 99 100
53 64 55 53 66 78 80 82 86 84 76 80 76 79 98 92 86 96 95 93 90 95 91 100 100 100 100 100 100 98 100 100 100
60 55 61 72 76 75 86 97 89 90 83 82 79 97 93 92 91 86 89 92 91 93 95 100 100 100 100 100 100 100 100 100 100
72 86 85 83 77 87 91 100 100 92 90 84 92 90 98 92 87 79 76 80 98 97 89 94 87 96 100 100 100 100 100 100 100
78 72 73 77 89 97 100 100 100 100 100 95 95 97 92 84 78 85 84 95 77 69 81 76 80 88 92 100 100 100 100 100 100
96 100 99 100 100 100 100 100 100 100 100 100 100 95 82 73 72 79 88 72 65 60 60 65 94 100 100 100 100 100 100 100 100

GFSFLT1_250_rhum_087.txt.gz
RH
54 42 39 35 36 32 31 31 28 24 22 20 18 17 17 17 18 26 30 32 35 33 33 28 28 26 25 25 24 24 25 28 29
36 33 33 36 36 34 32 27 24 22 19 18 19 21 24 31 33 33 31 33 37 32 34 33 29 26 26 24 26 31 33 32 35
35 36 37 36 34 31 28 25 22 21 20 22 27 29 28 32 31 32 37 41 41 39 34 29 26 25 26 24 29 31 34 39 51
41 41 40 36 30 29 25 23 23 25 28 30 33 40 42 41 38 38 44 42 38 33 29 26 25 28 29 31 35 33 39 47 57
44 40 39 37 31 26 26 27 30 29 30 42 57 50 47 42 39 42 42 37 35 32 30 28 26 34 35 38 39 38 46 59 62
38 36 34 30 28 26 28 29 29 36 46 58 66 60 54 51 49 45 41 38 35 32 31 33 31 37 40 39 44 40 49 68 82
38 33 32 31 28 27 29 30 34 48 54 58 56 69 67 58 53 50 49 44 38 36 36 37 36 41 44 44 45 50 61 83 92
39 35 36 34 28 28 32 33 33 39 50 53 59 73 72 64 60 56 53 48 44 41 39 44 46 47 50 47 48 60 79 87 100
42 38 36 34 33 32 32 35 35 45 50 48 56 65 58 57 58 55 53 50 44 41 41 51 54 57 58 56 52 64 99 100 100
54 46 39 34 33 33 34 38 40 44 44 49 54 62 61 57 58 56 58 54 51 51 55 64 60 63 60 70 76 74 99 100 100
54 55 44 38 35 35 41 43 44 41 44 53 58 62 67 64 61 63 56 61 63 67 74 73 69 61 60 75 85 80 99 100 100
78 56 56 47 40 40 45 49 47 41 38 42 54 63 65 67 71 68 66 69 78 78 78 74 65 62 75 87 94 98 100 100 100
76 73 70 57 51 44 46 48 50 44 42 45 57 70 69 66 76 74 78 88 84 79 79 70 61 71 89 97 100 91 100 100 100
96 86 79 74 56 55 51 49 46 45 46 51 70 77 74 83 85 81 90 89 86 84 75 67 64 78 94 100 100 100 100 100 100
95 89 80 80 72 63 58 50 47 46 57 82 81 70 80 85 93 93 93 90 87 83 70 63 75 80 100 100 94 82 89 99 100
100 96 96 89 68 65 52 58 50 60 74 77 74 88 96 100 100 100 92 93 88 70 65 70 79 95 89 89 74 81 87 92 93
100 100 92 83 88 70 68 64 65 73 74 85 96 100 100 100 100 98 100 88 77 69 67 68 66 66 66 61 55 73 94 100 100
92 95 95 86 86 87 84 83 85 86 92 100 100 100 100 100 100 100 88 84 71 74 72 64 56 54 52 54 82 100 100 100 100
100 100 100 94 86 91 96 99 96 100 100 100 100 100 100 100 100 94 85 74 70 68 69 61 52 48 57 62 66 75 75 69 59
100 100 100 100 90 99 100 100 100 100 100 100 100 100 100 98 90 78 88 72 68 70 55 49 43 53 57 51 67 56 30 35 34

GFSFLT1_250_rhum_090.txt.gz
RH
60 39 49 55 48 41 37 32 32 31 28 23 20 18 19 22 24 28 31 36 38 40 38 37 35 32 31 30 28 30 31 32 34
58 58 57 43 38 35 33 33 32 27 24 21 21 24 24 24 26 37 42 44 42 42 40 40 38 35 35 35 33 34 33 31 34
54 49 44 40 36 37 35 32 29 25 22 21 23 24 31 42 45 45 45 48 49 48 47 46 43 39 38 35 34 34 33 33 36
44 43 43 40 42 40 35 29 24 24 23 22 25 32 35 35 45 53 58 56 50 50 48 45 42 41 39 39 39 37 36 36 34
47 46 48 46 42 39 33 29 26 26 24 26 29 34 33 40 52 61 59 52 49 48 44 44 45 43 45 41 43 40 38 38 40
50 46 42 39 38 35 30 29 28 26 28 31 30 30 37 42 50 54 56 55 50 49 47 49 49 48 47 48 47 46 41 42 52
53 46 43 42 39 37 34 34 30 29 31 31 32 35 38 42 51 52 53 53 52 53 51 56 52 52 51 51 52 51 44 52 78
60 62 52 47 42 38 37 37 35 34 31 31 35 35 38 40 40 37 45 53 53 53 58 58 59 58 56 61 58 48 45 64 71
65 62 62 60 55 47 43 41 40 37 35 34 36 38 38 37 36 38 41 55 61 58 65 68 69 68 66 69 57 50 50 71 99
72 68 72 75 72 59 57 51 43 39 39 40 40 42 38 39 40 40 50 68 63 67 73 81 78 73 75 66 56 53 58 91 100
85 85 90 91 87 74 73 65 58 52 51 47 43 43 42 41 40 47 65 68 66 78 87 84 79 80 74 61 53 56 74 96 100
94 95 97 96 94 95 92 68 68 68 64 52 53 49 48 45 50 57 65 63 74 90 92 89 78 73 68 58 54 60 73 86 90
96 97 96 92 95 92 85 85 82 77 63 65 52 59 49 49 56 66 65 74 91 99 93 93 77 74 64 53 54 61 76 85 80
98 90 92 89 91 91 93 90 86 81 76 68 61 55 58 60 67 70 78 93 100 90 92 84 80 73 60 52 55 68 76 60 61
100 100 100 100 100 100 98 96 91 81 81 64 64 61 67 74 77 81 100 100 96 92 86 84 80 67 60 59 64 68 62 59 54
100 100 100 100 100 100 100 100 92 85 77 74 68 82 84 80 85 99 97 99 91 84 80 78 73 67 62 67 68 58 48 53 62
100 98 100 100 100 100 100 100 91 82 71 68 86 91 90 90 99 100 100 95 90 86 82 76 69 65 65 78 72 51 49 51 72
100 100 100 100 100 100 100 98 79 68 77 84 89 99 100 100 100 100 99 94 91 80 81 78 64 60 86 85 61 49 51 67 61
100 100 100 100 100 100 99 84 72 74 83 92 98 100 100 100 100 100 100 96 92 81 83 68 67 75 92 86 52 48 53 57 45
100 100 100 100 100 92 70 67 85 89 91 100 100 100 100 100 100 100 100 99 88 88 80 70 83 96 88 60 52 63 68 45 31

GFSFLT1_250_rhum_093.txt.gz
RH
62 41 58 52 43 47 55 44 38 33 34 32 25 23 21 19 20 23 25 29 44 45 48 48 51 47 42 39 38 35 31 31 32
30 40 40 47 52 58 47 38 34 34 32 28 23 21 20 21 22 23 24 33 42 48 49 52 48 44 40 39 37 35 31 31 35
41 51 52 59 56 49 41 39 35 34 30 24 23 21 21 22 24 27 34 39 44 49 52 51 49 44 42 40 38 35 32 34 37
50 48 52 54 51 48 44 43 39 35 28 26 26 23 23 27 27 33 34 43 36 35 38 46 53 46 46 41 44 40 39 40 39
47 47 53 56 54 52 49 43 37 32 28 28 26 26 28 27 28 33 33 32 32 34 39 54 55 49 45 46 49 44 45 43 42
51 53 55 52 49 47 42 39 36 34 34 32 31 31 30 31 32 31 30 31 38 38 43 60 54 49 47 50 55 49 47 48 47
65 61 58 57 55 51 44 42 38 37 37 37 36 34 33 34 34 34 34 37 40 39 47 58 50 48 51 63 59 56 53 54 51
66 67 64 65 69 68 60 53 46 44 44 42 38 36 36 33 33 34 37 38 43 42 53 57 51 55 70 68 67 64 58 57 56
73 69 70 70 76 74 73 73 66 66 59 56 52 49 42 42 40 38 41 44 44 50 61 56 58 69 78 76 67 69 61 58 56
82 76 72 78 82 83 82 81 87 83 72 75 64 60 55 60 50 45 47 50 58 65 62 57 71 83 83 79 70 68 67 55 51
85 88 88 90 88 85 90 95 95 91 95 92 88 71 65 66 54 49 55 58 68 68 60 68 84 86 90 78 73 66 64 54 52
88 91 94 92 91 94 94 92 100 99 96 97 91 90 78 70 59 60 64 64 72 63 69 77 88 89 90 77 72 66 59 53 51
94 95 96 95 91 93 97 96 93 96 94 99 100 99 86 69 64 65 68 67 73 65 77 86 91 90 83 73 69 63 58 53 60
90 95 100 95 95 100 100 93 93 99 100 100 100 98 83 73 69 68 72 75 72 73 78 89 91 90 70 72 68 64 56 49 68
92 100 100 100 100 100 100 100 100 100 100 100 100 99 91 69 77 75 72 76 81 77 87 88 96 80 74 78 69 61 52 63 73
94 93 100 100 100 100 100 100 100 100 100 100 100 100 79 82 76 83 84 86 84 87 89 98 87 80 78 74 70 57 50 72 89
100 100 100 100 100 100 97 98 94 100 100 100 100 90 80 90 83 89 84 87 91 98 97 96 86 82 83 74 66 59 60 59 76
100 100 100 100 100 100 100 100 100 100 100 100 91 88 92 85 94 100 94 100 98 95 94 96 92 90 84 74 70 62 71 69 70
100 100 100 100 100 100 100 100 100 100 94 75 79 88 95 92 100 100 100 100 100 99 98 98 100 92 85 71 68 68 68 72 63
100 95 96 97 96 100 100 100 93 80 72 82 76 76 84 100 100 100 100 100 100 100 100 100 99 91 78 78 79 74 80 70 66

GFSFLT1_250_rhum_096.txt.gz
RH
30 39 38 60 64 55 60 49 55 50 42 36 35 32 27 22 21 21 22 26 29 36 34 31 33 39 46 44 41 36 34 33 32
30 34 36 47 50 42 45 61 54 45 38 36 34 31 24 23 21 22 25 26 28 33 30 34 36 40 46 42 40 37 35 33 36
29 31 34 35 47 52 55 56 50 44 40 38 34 28 24 24 22 25 26 26 28 31 32 35 39 43 46 47 42 40 40 37 35
31 37 39 50 50 56 56 50 50 48 48 44 39 30 27 27 28 29 28 28 31 34 36 38 42 46 52 49 43 41 45 44 40
36 42 50 48 53 55 56 54 53 48 44 39 35 34 34 34 33 31 29 29 34 36 40 46 52 57 56 48 46 45 46 45 48
42 50 53 50 58 54 54 51 48 43 40 40 39 38 37 35 34 34 32 35 38 40 46 49 57 60 55 47 49 48 51 51 54
56 59 58 58 61 61 56 56 51 48 47 48 48 48 46 45 44 43 45 47 51 51 49 54 58 61 57 50 52 53 58 51 59
67 66 66 67 74 66 64 65 66 66 62 62 64 64 65 58 59 58 58 59 59 57 54 61 63 63 62 57 56 62 62 58 64
70 65 69 72 71 72 69 67 69 70 75 76 78 80 76 72 71 68 72 63 68 62 64 65 67 68 69 61 65 68 66 65 65
72 74 74 72 72 76 75 72 78 82 82 81 83 88 82 74 69 78 77 65 69 64 70 69 70 74 71 66 72 72 73 74 65
84 83 90 88 85 85 89 84 82 87 81 80 82 79 79 74 78 92 81 67 64 68 75 77 75 76 74 75 74 75 75 75 62
94 92 90 89 88 87 86 92 86 85 81 73 74 88 74 93 100 98 80 74 78 84 86 79 84 80 75 76 76 80 82 71 62
89 94 100 100 96 94 93 95 94 91 88 92 94 90 100 100 89 90 94 86 91 91 86 87 87 84 82 84 80 88 82 68 65
83 86 89 92 95 99 99 99 99 100 100 100 100 100 100 97 87 99 89 81 88 86 90 94 90 84 80 86 92 87 80 70 70
93 86 85 85 88 91 93 96 100 100 100 100 100 100 89 85 100 93 82 85 92 88 94 97 83 81 82 92 92 84 79 76 65
100 99 88 89 90 92 95 97 97 100 100 100 100 100 100 100 100 84 79 86 88 87 92 86 78 78 98 90 80 82 78 77 69
94 100 100 100 100 100 100 100 100 100 100 100 100 100 100 100 85 79 86 85 87 97 81 77 81 96 89 84 86 85 83 77 64
100 100 100 100 100 100 100 100 100 100 100 100 100 100 97 79 93 83 82 87 93 87 86 90 96 98 86 89 88 81 80 68 54
100 100 100 100 100 100 100 99 94 98 100 100 100 98 92 100 92 97 96 88 98 98 99 100 99 97 99 95 88 80 74 61 58
100 100 98 82 89 100 99 99 100 99 86 97 98 89 96 92 100 99 100 100 100 100 100 100 100 99 100 98 80 71 62 63 77

GFSFLT1_250_rhum_099.txt.gz
RH
51 52 51 54 63 47 46 61 60 49 44 52 43 39 36 33 29 24 23 23 26 28 28 32 32 36 39 40 39 46 41 38 35
31 34 33 39 36 47 56 46 40 39 56 49 42 40 36 33 29 25 27 26 29 28 29 32 35 39 41 45 44 47 44 42 38
27 30 25 27 30 43 45 44 42 53 53 48 44 42 43 39 32 31 30 32 32 30 31 33 39 44 50 49 50 48 49 45 40
24 27 27 28 37 44 47 49 50 54 50 50 50 48 43 37 33 33 35 36 34 32 38 42 49 53 56 52 55 54 53 48 42
26 26 32 38 46 49 54 51 54 53 53 53 49 44 40 38 37 38 39 41 41 42 45 54 60 60 61 57 57 58 58 52 46
29 40 43 46 50 53 53 55 56 54 53 51 47 44 43 43 48 54 54 54 54 53 52 59 64 69 67 63 64 62 57 52 47
37 44 45 45 50 56 58 61 61 58 58 59 54 56 55 60 63 61 67 67 62 59 70 70 68 75 70 66 73 66 61 55 51
42 47 52 52 56 60 64 64 69 65 67 63 67 65 64 69 68 64 70 71 67 64 92 70 72 79 81 75 78 70 68 58 52
50 49 54 59 58 66 70 73 72 69 71 66 66 68 71 74 73 73 64 67 67 100 92 75 85 88 88 82 84 72 68 55 52
67 63 57 63 63 66 71 72 71 73 76 75 74 76 82 78 64 60 66 64 100 98 78 85 86 85 83 82 80 78 65 54 55
85 85 80 77 72 72 76 79 80 85 86 89 89 92 80 67 71 68 93 100 100 92 91 100 88 82 81 87 82 76 60 59 65
82 82 86 89 85 84 86 84 84 87 88 88 88 87 78 95 92 100 100 100 100 81 98 98 89 85 88 83 86 69 63 62 63
81 84 84 82 87 94 98 100 100 100 100 100 95 97 100 100 100 100 100 100 100 97 96 100 92 88 92 91 85 63 61 64 69
83 86 89 91 93 92 92 95 99 100 98 93 93 94 95 100 100 100 100 98 87 83 84 99 92 88 89 87 74 72 67 68 77
92 90 89 88 85 85 89 91 89 86 90 91 87 86 94 100 100 100 96 92 77 80 95 93 89 84 82 64 78 77 84 76 79
86 76 84 100 100 98 94 87 80 81 77 79 91 100 100 100 100 100 93 81 82 90 88 79 82 78 70 66 69 82 81 84 88
96 97 98 100 96 100 100 100 100 100 100 100 100 100 100 100 93 89 96 88 76 79 74 86 75 65 70 76 83 88 80 87 98
100 100 100 100 100 100 100 100 100 100 100 100 100 94 92 100 100 95 82 76 75 75 86 82 66 76 72 74 91 95 93 98 95
100 99 100 100 99 100 100 100 99 95 99 91 76 87 95 94 92 100 82 75 85 84 76 85 93 85 87 83 95 96 99 100 100
100 87 100 99 87 75 72 75 76 86 82 87 75 88 88 95 82 97 100 97 88 90 100 100 93 96 92 100 100 100 100 100 97

GFSFLT1_250_rhum_102.txt.gz
RH
41 39 37 45 58 53 55 61 43 30 36 39 36 48 44 42 39 36 32 31 30 30 30 31 31 33 36 43 44 48 47 47 44
41 40 36 43 42 44 37 39 29 25 31 33 41 50 46 42 41 42 38 33 31 30 34 34 34 38 43 49 52 56 53 50 48
39 37 32 28 33 29 26 27 26 26 31 37 49 50 48 49 50 47 40 35 37 36 36 39 43 45 49 57 57 60 59 58 55
38 34 29 27 28 28 27 31 33 33 37 41 48 52 53 52 48 44 41 39 41 40 42 43 49 56 60 61 58 58 58 60 60
32 31 29 28 24 28 30 35 46 38 42 46 50 55 54 51 51 52 49 49 50 48 52 54 57 66 76 78 64 66 69 66 59
29 30 29 28 25 29 36 42 52 43 48 48 53 53 57 59 64 65 60 58 58 58 57 56 58 97 86 74 74 67 64 64 60
32 34 32 32 30 34 44 46 47 47 52 55 57 59 62 64 63 68 69 71 69 60 61 58 86 99 81 83 77 70 61 61 65
39 39 34 35 37 39 44 45 47 51 56 59 60 66 68 66 70 70 68 72 70 62 62 98 100 100 86 86 82 75 66 68 67
49 46 42 47 50 48 49 52 52 55 62 65 67 67 73 75 75 77 81 77 72 76 98 100 100 100 87 81 82 75 74 69 62
62 58 55 56 62 61 55 54 60 64 68 72 73 72 80 83 85 87 79 71 100 100 97 100 100 98 85 79 77 72 75 67 62
66 75 72 72 70 67 63 63 64 69 74 80 79 80 83 88 90 82 73 100 100 100 100 100 100 94 83 83 84 78 74 64 55
69 77 78 79 85 87 86 87 86 84 83 88 86 84 91 97 100 92 92 96 98 100 100 94 93 90 88 82 78 79 64 61 57
73 72 82 90 89 82 81 85 91 98 100 100 100 100 99 96 89 85 84 84 91 100 100 99 92 89 84 79 78 71 73 61 50
75 77 74 75 82 86 90 94 92 89 89 92 89 87 79 78 76 68 64 97 100 99 100 100 100 96 87 92 83 76 64 54 42
78 82 87 77 75 74 74 78 73 78 85 78 68 66 61 64 68 91 100 96 98 100 99 95 100 99 100 90 90 80 65 49 48
94 90 78 78 72 77 84 77 95 100 99 100 100 100 96 100 92 86 98 100 89 86 90 96 99 98 81 78 80 70 68 68 74
99 100 100 100 100 100 97 100 100 100 100 100 100 100 99 98 93 96 79 76 73 81 85 96 88 90 98 80 77 67 73 87 100
100 96 88 96 100 96 88 100 100 97 93 80 78 78 82 81 74 74 67 67 83 90 75 80 86 92 88 71 72 90 99 100 100
100 100 100 100 100 100 96 99 100 94 90 84 78 84 73 64 80 62 60 65 55 63 79 82 83 78 76 78 98 95 89 98 100
100 100 100 100 100 100 81 89 99 94 79 76 75 60 52 52 47 57 62 61 62 55 57 83 83 88 86 88 90 100 100 100 100

GFSFLT1_250_rhum_105.txt.gz
RH
36 36 37 35 41 41 40 39 37 42 43 42 30 29 29 38 44 44 42 42 43 40 37 35 34 34 35 40 46 44 52 50 47
32 32 31 35 39 41 40 38 38 38 28 24 24 28 30 39 44 45 48 50 48 42 38 36 38 41 45 47 49 62 55 49 46
29 28 31 34 40 39 35 30 32 28 23 22 26 31 35 40 45 50 52 50 47 44 41 42 46 45 47 49 68 78 62 54 50
28 29 31 37 39 37 33 29 29 27 26 26 30 37 39 43 50 54 51 51 51 52 51 55 57 52 52 58 99 84 76 60 58
30 31 30 34 39 35 32 28 27 26 28 33 37 43 46 50 56 55 54 58 56 61 65 67 60 59 55 100 94 89 76 60 58
31 31 29 31 33 32 30 29 29 30 36 38 44 48 51 55 56 58 61 62 63 67 67 66 62 65 99 93 95 94 68 58 54
31 30 30 27 32 33 30 30 32 34 40 44 52 51 60 62 60 66 68 64 68 73 73 64 87 99 96 100 100 81 63 59 57
34 30 30 31 32 36 37 37 41 47 51 52 56 55 64 68 73 72 75 79 74 74 72 62 100 93 94 100 90 70 65 65 57
38 36 32 33 37 41 42 49 53 54 60 59 61 62 69 75 79 81 82 75 77 81 74 84 96 88 89 87 80 76 68 65 57
41 45 44 44 48 50 54 65 66 64 64 66 69 74 77 79 84 84 83 82 84 85 95 88 77 82 81 82 95 80 70 67 60
43 49 57 62 63 64 63 69 76 76 70 69 75 79 81 83 86 90 86 94 100 95 81 77 73 74 85 91 91 77 75 68 58
50 56 63 68 72 81 81 85 81 83 90 92 96 97 96 97 99 100 100 90 83 74 68 77 68 83 86 92 90 84 73 69 56
55 54 65 70 74 72 85 90 92 94 92 92 95 95 93 98 94 76 82 77 71 71 72 74 77 92 88 89 89 72 65 59 57
78 61 60 72 75 77 75 82 94 96 94 95 88 77 81 80 75 74 72 71 80 72 88 90 83 90 95 84 74 65 59 59 60
99 84 69 74 83 82 80 76 78 77 77 77 70 72 81 80 80 87 95 95 86 91 70 80 94 93 93 80 72 65 76 73 68
100 100 92 92 89 84 80 80 84 90 100 88 93 100 100 100 100 100 86 81 90 87 85 77 91 83 81 68 72 74 70 66 55
98 96 96 96 100 100 100 99 100 100 96 90 89 80 73 55 54 64 72 68 61 64 72 79 72 75 77 76 72 73 64 59 53
97 99 100 100 100 100 100 91 81 85 92 91 71 63 65 49 61 49 50 50 59 70 59 65 64 60 65 69 64 53 56 60 58
100 100 100 100 96 100 100 100 91 81 87 88 97 91 82 86 79 56 48 47 52 52 54 53 48 50 58 57 70 58 59 63 63
100 100 100 100 100 100 72 69 69 78 73 74 78 83 83 79 73 60 45 50 52 50 52 60 52 56 48 57 60 61 62 71 92

GFSFLT1_250_rhum_108.txt.gz
RH
47 58 50 42 40 38 38 38 42 42 41 39 42 40 25 22 23 27 36 40 44 49 50 48 45 42 43 45 49 47 50 75 74
44 40 45 46 37 34 34 37 42 38 37 33 36 31 28 26 29 32 40 44 50 51 50 49 48 49 52 54 51 55 76 78 78
40 37 36 38 33 32 33 38 40 38 34 32 36 30 29 29 32 37 46 51 52 51 52 58 55 59 58 56 59 81 77 83 80
39 38 34 36 30 31 31 38 40 38 34 32 35 32 32 36 37 42 48 52 56 59 65 61 60 59 60 64 87 81 87 80 62
39 34 33 33 32 32 32 41 40 36 33 33 35 36 40 47 41 48 52 58 64 70 68 70 66 66 64 64 86 80 71 65 54
34 34 33 32 32 33 34 34 34 35 33 36 38 45 57 58 48 56 62 66 70 72 70 80 73 70 73 66 82 78 63 64 57
33 31 30 31 30 31 32 31 36 36 36 39 43 54 66 61 54 59 66 74 78 77 75 78 73 75 74 94 83 68 57 60 58
35 33 31 30 29 28 28 30 33 37 42 46 58 66 69 60 65 69 72 79 80 82 78 77 77 84 99 81 72 68 58 66 65
39 37 34 34 32 31 32 33 38 48 52 58 61 71 74 72 74 76 73 76 77 81 81 86 92 100 84 69 69 68 78 73 65
42 40 37 40 42 41 42 40 43 55 60 64 72 76 79 75 75 77 75 76 80 84 87 99 89 72 68 62 75 78 75 76 73
46 47 44 45 47 46 48 50 57 62 66 73 85 79 81 78 77 78 74 80 81 94 92 72 67 63 60 78 83 80 74 75 68
47 51 50 48 47 53 62 59 61 68 74 73 80 86 85 84 88 79 77 76 84 74 72 72 59 59 65 75 82 95 73 69 64
66 55 51 53 53 56 62 68 71 80 80 85 89 94 95 88 79 69 62 76 76 72 74 67 75 79 78 86 88 75 76 64 55
96 81 75 75 72 63 64 65 75 77 79 86 88 90 92 86 81 70 70 72 74 79 79 74 61 84 77 71 77 73 59 52 50
100 100 100 100 96 88 79 70 73 79 76 77 79 78 80 79 74 73 86 66 76 96 79 59 68 67 62 71 77 67 64 52 49
100 100 100 100 100 100 100 98 93 97 100 98 100 100 100 85 70 66 78 82 89 62 54 60 79 83 87 75 67 68 63 50 49
100 100 100 99 100 100 100 100 100 100 96 96 100 99 86 93 83 92 92 91 64 72 91 83 88 85 73 71 72 52 49 48 53
100 100 100 100 100 100 100 100 100 100 100 99 77 66 64 62 55 58 64 85 89 88 83 76 72 69 61 61 58 53 56 63 69
100 100 100 100 100 100 100 100 100 100 100 88 89 81 83 78 73 80 80 70 73 59 61 69 60 65 82 84 71 68 76 86 77
100 100 100 100 100 100 100 100 100 100 90 76 66 71 79 79 68 72 66 62 70 69 62 79 92 77 70 66 75 85 81 81 94

GFSFLT1_250_rhum_111.txt.gz
RH
52 51 53 54 53 58 50 42 39 36 35 41 41 38 38 38 36 31 32 32 35 40 46 50 53 56 59 56 54 58 59 59 65
37 42 38 43 49 44 47 47 38 35 35 41 42 39 36 34 38 37 37 42 39 41 49 57 62 66 68 68 58 60 59 56 71
27 28 30 34 38 40 38 36 37 37 34 38 40 39 37 40 44 44 45 48 44 46 54 59 65 69 72 67 63 64 57 57 56
25 26 28 28 33 37 35 35 34 36 35 39 41 38 38 47 46 48 51 53 48 51 60 65 72 71 66 73 68 67 69 78 60
27 30 29 29 35 33 33 35 34 35 35 40 41 38 41 48 45 50 58 56 52 60 62 70 76 75 76 73 72 75 88 66 53
32 32 30 32 33 33 31 33 32 34 35 36 37 39 45 48 47 55 63 60 53 61 63 70 75 77 74 68 72 99 76 60 50
37 36 37 34 33 32 29 30 32 32 32 31 32 40 49 52 51 67 72 67 59 60 64 67 74 68 74 75 98 77 61 56 60
37 35 36 38 36 34 34 31 31 31 30 31 36 45 54 57 57 69 74 72 65 66 67 67 69 73 80 93 77 61 60 69 51
46 38 36 40 40 39 38 37 37 35 36 36 36 48 60 60 67 72 77 69 66 68 67 65 73 78 92 78 62 66 68 68 56
64 55 44 41 43 42 41 40 40 39 42 44 46 53 65 67 72 76 75 72 70 65 71 74 78 72 67 66 71 68 61 60 56
74 73 64 48 44 44 46 48 49 47 50 55 53 61 69 74 74 79 79 77 73 72 69 68 68 63 70 71 75 49 60 58 68
70 70 78 69 51 50 51 54 51 55 57 64 66 66 69 77 79 76 79 75 66 65 64 64 69 66 72 78 71 55 56 62 68
71 70 66 75 74 59 52 51 55 59 62 64 72 73 75 77 76 78 71 64 60 58 68 71 75 70 65 66 59 65 59 66 61
77 77 77 87 92 83 76 66 73 68 73 77 75 77 80 80 74 74 71 60 72 64 76 72 90 75 77 68 72 78 63 62 60
92 92 92 92 100 100 100 98 95 95 98 98 100 97 90 79 75 75 60 71 74 72 64 66 75 80 67 87 85 75 66 64 53
100 100 100 100 100 100 100 100 100 100 100 100 100 100 91 85 81 73 62 59 76 75 89 71 56 69 78 94 81 78 65 59 49
100 100 100 100 100 100 100 100 95 98 100 100 100 100 100 96 90 71 76 76 71 73 81 81 87 88 88 88 80 73 67 59 61
99 100 100 100 100 100 100 100 100 100 100 100 100 100 97 94 99 99 98 88 69 61 70 83 86 91 79 71 67 66 70 68 73
75 77 99 100 100 100 100 100 100 100 100 100 100 100 93 100 98 92 91 91 78 78 74 65 62 60 60 67 75 76 68 77 89
100 98 99 100 100 100 100 100 100 100 100 100 100 91 96 91 99 96 69 58 57 63 54 55 66 76 69 78 79 83 90 90 100

GFSFLT1_250_rhum_114.txt.gz
RH
67 58 60 58 55 54 54 52 45 44 48 50 39 36 38 40 38 40 42 42 43 44 43 45 51 55 59 63 68 61 53 48 53
62 54 44 36 39 43 45 37 41 44 42 42 42 39 39 40 42 42 45 44 44 43 49 52 51 54 64 69 71 63 55 53 67
29 28 26 24 28 29 30 31 32 35 35 37 38 39 39 44 44 43 48 46 41 46 53 56 59 60 69 72 72 64 60 54 64
40 29 27 25 24 26 25 26 33 37 35 35 39 36 36 42 42 44 50 47 46 51 59 63 61 64 63 69 66 65 58 63 57
52 44 40 36 28 26 27 29 35 33 33 36 33 34 35 35 38 44 47 48 53 54 64 66 68 65 63 66 61 67 62 60 52
50 42 38 39 36 31 29 29 30 32 31 33 33 32 33 33 34 40 45 47 48 52 64 72 66 58 68 63 61 57 60 55 48
49 40 37 36 35 37 34 32 31 32 31 29 30 31 32 31 33 40 46 45 44 53 60 68 66 65 66 67 59 57 53 53 55
50 46 39 36 33 33 33 34 34 35 34 33 35 35 36 36 36 43 51 58 51 51 58 65 72 71 70 71 62 55 60 59 59
64 58 44 45 42 38 34 33 35 39 39 37 39 39 40 43 43 47 57 58 56 55 55 60 66 62 64 63 71 74 55 56 57
88 67 53 57 59 54 49 39 36 38 41 42 44 47 47 51 51 52 54 58 61 56 51 59 64 64 59 65 77 77 62 51 52
95 75 71 71 65 59 54 53 47 42 43 50 52 50 53 54 62 65 66 58 57 54 52 53 66 64 65 74 69 59 56 50 49
94 92 90 85 77 69 56 59 65 64 52 49 53 57 60 62 64 67 67 64 62 52 50 50 64 73 74 65 56 60 54 45 48
97 98 99 97 83 68 60 61 70 76 70 61 58 62 65 69 75 71 66 60 58 54 60 72 77 74 72 61 58 59 54 62 68
100 91 83 87 94 86 72 68 75 78 88 89 83 80 82 83 82 84 72 72 77 77 69 70 78 84 75 71 58 61 62 72 84
100 95 92 98 99 100 100 99 100 100 100 100 100 100 100 100 99 96 83 74 89 80 76 78 75 72 68 71 80 67 68 70 66
100 96 99 100 100 100 100 100 100 100 100 93 86 90 100 100 100 99 84 86 80 73 66 72 72 74 78 77 79 71 58 64 62
100 100 100 100 100 100 100 100 100 89 99 100 100 100 100 100 96 87 86 83 82 77 80 83 94 87 74 54 59 65 63 66 70
100 100 100 100 97 89 75 70 63 76 96 91 100 100 100 100 98 100 100 98 91 91 86 89 93 83 59 76 75 77 93 90 83
100 100 84 76 72 64 47 68 91 89 95 97 100 100 99 100 100 84 83 82 80 70 74 86 80 68 66 58 73 84 83 98 100
100 96 79 86 75 67 57 73 100 100 100 89 86 96 91 91 86 88 71 77 64 68 73 49 53 61 52 66 82 94 100 81 100

GFSFLT1_250_rhum_117.txt.gz
RH
62 57 61 65 61 61 59 52 53 49 48 42 39 43 42 42 40 40 41 42 44 43 42 41 45 50 49 51 51 50 50 40 40
62 56 55 64 77 67 46 37 32 36 32 27 31 34 37 38 39 37 42 40 38 40 41 44 49 52 54 53 49 49 52 47 42
53 56 54 37 37 37 25 22 22 25 24 24 30 34 32 36 34 34 35 36 33 36 42 42 49 54 58 55 51 57 46 45 46
38 53 50 39 30 26 27 26 26 25 26 28 29 29 31 33 32 32 32 31 34 33 38 43 54 61 63 70 66 63 53 44 46
64 68 60 45 46 41 37 33 28 26 26 28 30 31 31 31 32 31 31 28 31 36 40 52 58 64 70 75 67 62 52 46 42
76 74 60 44 38 36 35 37 32 29 28 28 29 30 29 29 30 31 32 32 31 38 49 54 56 59 67 65 62 60 53 46 43
93 67 60 47 36 35 35 34 31 30 31 32 32 32 32 33 34 35 35 36 36 43 55 61 58 56 57 59 60 57 59 52 43
83 69 74 50 38 39 35 32 30 31 31 31 31 32 33 35 36 38 39 41 41 42 45 48 53 52 55 60 62 61 63 57 49
72 84 72 61 53 55 41 43 42 44 41 35 33 33 34 37 40 40 39 40 44 49 49 50 51 50 56 61 73 68 67 63 50
86 79 80 71 70 67 51 50 52 51 50 48 42 43 42 39 40 40 40 46 46 46 46 49 54 55 71 63 67 63 55 59 46
78 91 78 85 89 75 68 67 73 67 60 53 51 56 50 47 51 50 51 52 54 58 53 51 57 72 66 77 66 61 63 63 50
86 84 92 75 86 82 86 86 80 81 69 61 57 55 58 61 60 62 62 67 63 62 57 70 67 72 69 67 56 63 70 58 44
92 91 86 83 89 84 78 81 83 88 85 82 67 72 82 81 88 82 80 77 71 70 70 73 66 63 74 63 58 62 59 53 65
82 81 90 92 93 76 62 61 85 85 100 100 100 99 100 94 79 66 70 66 92 74 73 70 70 76 65 53 73 71 70 76 58
98 95 100 100 99 85 80 78 87 99 100 100 100 100 87 77 73 84 98 85 91 83 74 66 71 67 54 57 62 71 81 74 58
100 100 97 100 97 100 100 100 100 100 100 100 86 76 53 56 71 83 85 76 85 78 65 55 56 54 52 64 61 70 87 80 56
100 100 100 100 100 100 100 100 100 100 99 68 79 65 72 81 66 65 70 72 78 67 60 50 47 49 64 54 65 60 67 64 48
99 99 100 100 100 100 100 100 72 72 80 70 56 80 69 68 74 69 68 67 60 57 55 53 47 68 46 54 62 56 60 59 66
100 100 99 100 100 100 96 76 68 69 66 70 73 68 72 68 51 52 52 48 45 47 46 54 59 66 53 50 52 59 67 73 74
100 76 95 100 100 100 98 77 78 96 100 100 91 72 47 36 32 31 43 40 42 53 51 47 56 61 50 43 58 67 85 88 86

GFSFLT1_250_rhum_120.txt.gz
RH
54 48 53 71 65 62 69 71 66 56 41 39 33 32 25 26 30 34 33 38 32 35 34 31 34 42 44 54 63 63 50 52 51
84 82 53 60 57 56 53 57 68 61 39 24 22 24 23 27 30 29 32 32 31 31 33 38 36 44 52 59 70 64 61 55 55
60 65 76 72 63 60 46 40 34 29 24 23 22 24 26 29 29 30 31 31 30 30 30 38 43 45 52 56 64 58 63 57 53
54 54 45 42 40 54 45 33 27 29 31 29 24 25 27 29 30 30 28 28 29 28 31 34 44 47 55 59 55 60 53 59 53
62 65 50 38 49 51 46 40 37 31 31 30 29 28 26 28 30 29 29 29 31 32 34 34 39 50 58 57 62 60 57 54 52
87 76 59 54 61 55 53 39 33 30 28 29 31 30 30 30 30 31 31 31 32 34 35 37 39 49 52 54 65 58 62 55 54
80 76 68 60 68 61 50 44 31 31 30 29 29 28 29 29 30 29 30 30 32 32 33 39 44 48 49 54 60 57 53 48 42
88 84 67 67 81 68 59 44 39 37 35 37 39 40 37 35 33 32 30 31 35 36 40 42 46 49 54 58 63 57 42 44 51
91 74 60 63 68 67 72 56 50 52 45 44 47 49 46 43 40 38 36 38 43 45 41 45 50 55 55 57 54 60 50 48 52
100 83 70 64 79 76 76 62 68 72 56 51 54 60 58 51 46 44 46 49 47 41 45 52 50 57 52 57 55 58 60 57 46
100 99 83 71 91 80 76 73 84 70 74 69 67 64 70 66 52 50 55 57 54 51 51 49 52 67 60 61 70 70 64 60 44
100 86 80 69 78 84 90 77 70 73 67 64 67 54 68 88 84 76 80 65 60 50 52 50 55 72 60 67 60 72 68 52 55
87 84 80 90 92 96 78 76 81 78 73 59 52 54 73 100 100 100 84 66 63 51 46 58 75 74 69 67 50 52 50 50 50
88 96 84 100 100 96 91 87 86 85 76 58 68 70 87 100 100 91 67 60 55 47 42 58 66 55 53 53 41 48 49 47 56
100 100 100 100 100 87 94 100 100 98 95 82 87 92 92 92 66 52 49 55 56 46 46 48 52 51 51 46 42 43 39 45 39
100 99 95 100 100 96 100 100 100 100 100 100 100 98 100 100 97 59 63 59 65 46 46 39 38 41 34 35 34 40 42 52 50
60 81 100 100 100 100 100 100 100 100 100 100 100 100 95 65 61 70 68 55 57 36 31 33 42 37 31 28 32 32 44 58 53
94 100 99 100 100 100 100 100 100 100 100 100 100 100 84 76 72 76 52 49 51 39 31 32 35 27 27 32 33 37 44 54 57
85 70 62 63 77 90 100 100 100 100 100 100 100 93 90 79 65 50 46 55 55 42 33 36 26 24 28 34 39 39 48 53 55
63 62 95 100 100 100 100 100 100 100 90 86 87 83 76 75 80 69 69 50 45 32 34 39 27 29 31 29 38 50 57 62 75

GFSFLT1_250_rhum_123.txt.gz
RH
81 74 68 88 79 61 70 69 60 59 59 75 72 64 26 24 21 23 27 27 30 32 30 33 31 34 42 44 47 46 52 58 61
89 76 63 61 73 76 79 63 63 55 48 43 39 28 24 24 22 27 28 29 29 28 28 29 30 32 39 46 47 51 55 56 55
85 82 82 77 78 77 89 73 69 58 45 31 27 28 29 24 24 26 28 28 26 27 28 31 32 35 37 42 51 49 51 52 53
80 72 62 52 48 50 50 54 55 48 42 35 31 29 29 26 27 29 29 28 28 29 29 31 34 35 39 41 46 53 52 48 51
51 41 40 39 46 54 42 47 52 49 41 34 28 27 29 30 30 31 29 28 28 28 29 33 34 38 42 45 48 50 48 41 44
58 46 44 50 54 68 54 60 57 54 46 36 29 28 27 27 29 30 29 28 29 30 33 35 37 42 44 47 49 48 40 47 46
58 56 57 64 66 64 62 61 59 54 50 36 34 34 34 36 39 38 36 36 35 32 37 38 42 38 39 41 51 51 54 53 51
74 70 61 72 59 63 57 64 59 58 52 44 50 45 40 39 40 44 45 42 38 38 40 42 38 37 37 44 42 61 69 67 61
75 78 75 66 69 62 59 52 56 54 59 53 51 55 48 46 57 48 54 51 45 42 44 45 40 45 43 52 52 74 65 61 43
88 87 86 87 77 79 69 59 64 65 64 62 60 67 60 55 59 53 60 75 62 57 58 51 50 44 39 50 71 63 69 57 40
72 98 100 94 90 87 76 73 65 71 66 62 63 64 60 62 60 53 60 98 100 88 58 58 55 48 41 44 51 63 63 50 39
58 61 73 86 100 97 88 74 68 69 77 66 68 69 61 65 66 57 73 84 99 69 45 50 48 44 38 44 45 47 46 43 44
55 72 71 92 100 100 88 77 78 87 91 81 75 85 73 76 68 82 69 83 74 51 47 49 50 48 47 39 40 35 35 28 30
38 63 65 88 95 96 75 87 100 100 100 85 85 92 79 72 72 84 96 73 65 60 46 53 44 44 34 32 41 32 27 31 33
30 29 55 68 75 74 75 100 100 100 100 100 100 97 98 93 100 100 93 100 100 77 64 60 50 45 31 25 26 27 24 25 29
69 31 28 40 60 87 100 100 100 99 90 100 100 100 99 100 100 100 100 97 100 94 63 58 39 43 37 29 29 21 25 25 29
97 58 44 36 49 80 100 100 96 98 100 100 100 92 100 100 100 100 100 100 82 82 79 51 38 35 46 38 23 25 29 27 33
100 93 68 52 48 82 100 90 79 100 100 100 100 100 100 100 98 100 100 73 65 79 66 54 41 41 32 22 26 27 30 35 42
100 97 98 94 98 99 91 100 100 100 100 100 100 100 100 99 77 74 80 70 75 68 50 47 42 28 26 26 25 27 58 63 71
95 100 100 100 100 100 100 100 91 88 98 100 100 100 100 81 82 84 81 84 59 51 35 35 29 23 24 25 22 72 62 82 99